GFSFLT1_850_spd_000.txt.gz
Wind_Speed
24 34 36 37 37 36 35 34 34 32 31 33 32 31 31 30 27 23 21 19 17 15 13 12 11 11 12 10 10 8 8 7 5
22 31 39 39 37 38 36 35 36 38 37 35 34 32 33 33 30 28 22 19 18 15 14 11 13 11 12 10 11 10 10 8 9
22 27 33 40 41 41 40 37 37 37 38 38 34 33 34 33 31 29 25 22 23 20 15 13 13 12 12 11 10 12 12 11 11
19 23 31 36 43 42 39 37 37 36 34 35 36 34 37 36 30 27 26 24 24 19 19 14 14 13 13 13 13 13 15 14 12
12 17 26 32 36 38 40 40 38 37 35 33 34 38 40 36 30 27 27 26 27 21 22 16 12 8 16 17 16 15 17 16 13
11 12 18 26 30 36 40 41 40 39 36 35 32 32 30 32 32 32 29 31 32 27 25 21 21 31 29 22 23 21 20 18 16
14 12 15 23 28 33 35 38 41 42 36 33 31 29 29 29 30 28 34 35 36 36 35 32 36 39 33 33 26 23 22 18 17
17 16 18 25 30 34 35 35 37 35 32 29 28 27 27 26 24 29 36 39 40 42 44 48 46 44 39 34 29 27 24 20 19
21 22 21 26 28 29 30 30 29 26 26 25 24 24 24 23 27 31 35 37 38 45 53 54 51 49 41 34 29 26 26 24 19
25 26 25 28 30 27 25 25 24 23 21 21 21 21 23 25 31 30 29 27 32 40 52 53 49 49 38 30 36 28 25 23 23
25 22 20 22 25 23 22 21 20 19 18 20 22 22 23 24 25 23 21 23 25 30 41 50 47 41 36 26 30 31 30 26 25
18 18 19 21 23 23 23 24 24 23 22 21 21 21 21 21 20 21 21 21 22 26 33 35 30 30 25 24 27 29 28 28 25
13 18 18 22 24 27 28 29 28 27 24 21 19 17 17 16 18 19 18 18 19 20 26 28 27 28 25 24 24 23 24 27 27
15 20 23 28 27 28 31 31 28 24 21 17 14 15 16 18 18 20 18 19 17 19 20 20 23 23 24 27 24 25 22 23 27
26 29 27 29 31 30 25 23 20 17 14 12 14 16 18 19 20 21 21 20 18 19 19 22 19 19 23 21 25 24 24 24 23
29 30 28 24 23 22 20 19 15 13 12 13 14 17 19 19 19 21 19 17 19 19 18 18 19 18 17 17 17 21 22 20 21
22 20 19 18 16 15 13 11 12 12 11 12 13 16 18 19 21 21 16 14 15 15 13 12 14 15 16 14 13 12 18 19 17
17 16 13 11 10 11 12 12 10 9 10 12 16 18 19 20 18 17 16 15 15 12 15 14 12 12 11 10 11 11 12 11 10
12 14 11 8 8 9 9 9 9 10 13 15 16 17 16 15 14 11 11 12 18 18 15 13 11 11 11 11 12 13 13 13 12
12 14 11 6 4 6 8 10 12 12 13 14 15 14 13 11 13 13 13 11 12 10 17 15 12 12 13 13 13 13 12 12 12

GFSFLT1_850_spd_003.txt.gz
Wind_Speed
26 30 34 37 40 40 40 39 38 36 35 34 34 31 29 27 25 22 21 20 15 13 12 11 12 12 12 11 10 8 8 7 5
18 26 33 39 39 40 40 40 42 41 37 36 35 30 31 30 27 26 23 21 20 15 16 15 15 16 15 13 13 12 10 8 10
17 22 30 37 39 40 40 40 40 41 39 36 35 32 30 28 28 27 26 23 22 21 20 21 18 17 15 15 15 16 13 12 10
21 19 27 34 38 40 41 39 39 40 40 38 36 35 31 30 29 28 27 29 29 28 28 25 26 21 19 18 16 15 12 11 13
15 24 25 29 37 38 39 42 40 40 38 37 36 34 35 34 33 32 32 32 33 35 33 32 28 25 23 21 15 16 11 13 12
26 8 17 24 29 38 42 43 43 42 41 38 34 34 33 34 35 37 37 37 38 37 38 36 34 30 30 23 16 18 14 14 14
15 9 9 18 27 34 42 44 45 44 42 38 34 32 33 36 40 39 39 42 45 42 41 40 39 37 35 29 20 19 15 14 15
24 21 15 18 26 32 38 42 44 45 41 39 35 35 34 37 38 37 40 43 47 45 43 44 43 43 38 32 23 18 16 17 18
24 25 19 18 23 29 34 39 40 43 44 38 36 36 37 36 37 39 43 46 47 45 46 46 44 43 40 40 28 23 20 23 19
31 33 33 22 24 31 35 38 37 38 41 40 36 38 36 34 39 41 44 43 42 41 43 48 43 51 47 31 25 25 22 24 23
35 36 40 24 24 28 31 31 30 34 33 40 38 38 35 37 40 41 39 36 33 31 32 45 47 46 35 23 21 25 24 25 26
32 30 31 21 24 29 31 33 34 35 33 35 34 32 36 37 40 37 32 31 27 24 26 34 40 40 33 27 25 25 26 24 30
23 24 25 20 23 30 31 32 32 35 33 33 35 32 33 34 32 30 27 23 22 20 22 23 24 22 25 25 23 24 25 26 25
18 21 20 20 25 29 31 31 31 31 31 30 28 26 26 28 28 27 23 21 19 18 20 19 23 20 21 22 22 22 20 20 21
14 18 22 26 27 29 29 30 32 31 29 27 28 28 27 26 26 24 21 19 19 18 17 17 16 19 17 15 17 20 22 19 19
16 19 24 26 27 31 28 27 27 25 23 26 27 26 27 27 27 24 21 19 18 18 15 14 14 13 12 12 14 16 20 22 23
27 27 27 27 26 26 22 19 17 17 18 20 21 26 24 26 27 24 21 18 18 16 15 14 13 13 13 11 12 13 13 19 18
20 20 23 21 19 18 18 16 15 13 15 16 16 19 22 22 23 23 20 16 15 12 16 16 12 9 7 10 10 12 10 8 6
16 17 19 20 18 16 15 13 13 12 15 17 19 22 22 23 21 21 19 18 19 18 14 15 15 9 10 13 12 11 11 13 14
17 15 16 16 15 14 13 13 11 12 15 17 18 17 18 17 16 17 17 15 14 14 19 14 11 10 10 14 12 13 13 14 14

GFSFLT1_850_spd_006.txt.gz
Wind_Speed
39 38 36 38 42 43 44 45 41 40 41 40 38 36 35 30 33 29 30 23 26 21 19 18 20 18 18 17 14 13 11 10 11
26 39 38 38 40 44 41 43 44 43 41 41 40 36 37 32 30 34 33 30 27 25 24 21 25 26 22 20 19 14 12 11 9
19 18 34 35 38 41 42 42 44 42 42 42 41 37 38 34 34 34 36 32 30 30 24 27 25 27 25 22 18 19 17 13 17
22 19 33 32 37 39 40 39 42 44 43 41 41 39 38 38 38 38 36 36 35 36 33 31 33 29 26 23 22 22 20 18 13
20 27 26 27 30 38 40 42 41 43 44 43 42 40 40 39 40 39 40 41 40 39 36 37 36 34 31 27 26 25 22 19 23
22 5 25 31 29 37 41 44 43 44 46 45 41 42 43 43 41 42 42 44 43 42 41 43 40 39 35 31 31 28 24 20 19
16 11 22 25 25 35 44 46 48 46 45 45 44 44 45 44 44 45 44 44 44 43 43 43 42 42 39 35 34 31 27 23 20
13 10 20 18 21 30 43 45 50 50 46 47 45 46 45 46 46 46 45 44 46 45 43 44 41 41 40 37 34 33 29 25 22
22 21 17 24 26 25 29 43 49 52 51 49 47 47 48 45 45 45 45 44 43 42 40 38 39 39 39 38 36 36 26 24 24
26 23 24 18 21 27 30 34 49 54 54 49 49 48 49 46 45 47 46 43 42 42 41 41 38 40 41 41 34 26 23 24 25
24 27 32 30 31 25 26 29 37 45 46 48 48 47 47 47 46 47 44 42 42 42 41 39 38 34 35 35 37 34 30 27 25
28 35 28 34 30 29 30 31 35 40 45 50 46 48 45 47 43 43 43 42 41 39 37 33 29 31 32 29 28 24 23 25 26
32 38 33 20 24 33 31 34 37 41 41 47 50 48 48 41 41 42 42 39 35 32 29 24 21 25 27 18 25 25 26 21 21
16 35 31 27 17 23 29 36 36 40 41 42 45 38 36 35 36 38 36 32 26 24 19 19 19 21 22 18 21 23 21 19 19
11 8 3 7 17 25 30 34 34 35 33 29 31 32 31 32 34 32 25 19 17 18 18 20 19 17 18 18 19 20 20 17 17
4 2 5 10 13 17 21 25 30 31 28 28 30 29 30 32 29 27 26 21 21 18 17 17 15 13 15 14 10 13 14 15 19
8 10 13 17 20 20 22 24 26 27 27 30 31 32 31 29 26 22 19 17 16 15 15 15 12 13 13 11 13 15 12 14 15
25 25 24 23 24 22 24 25 27 27 28 29 30 28 26 24 23 23 22 22 19 16 17 15 15 13 9 9 12 8 7 6 6
25 24 23 21 18 17 19 21 21 22 22 22 22 23 21 24 26 25 27 22 19 18 16 16 15 12 14 11 11 8 6 6 7
20 20 16 16 16 16 18 19 22 21 19 16 19 24 25 24 24 23 23 21 19 17 16 14 14 14 14 11 8 9 10 8 9

GFSFLT1_850_spd_009.txt.gz
Wind_Speed
38 33 44 50 54 57 57 55 51 48 47 44 40 36 33 34 37 33 31 29 21 29 26 21 20 19 16 15 15 14 12 12 11
39 36 34 46 55 56 58 56 53 50 48 45 41 36 35 35 38 40 36 34 26 26 23 20 19 20 18 18 17 17 14 14 13
36 36 41 41 52 56 57 58 54 49 47 46 42 38 36 36 39 40 39 37 36 30 28 28 24 24 24 23 21 20 18 17 16
36 43 47 45 56 59 58 56 54 52 49 46 45 41 39 36 39 41 38 39 40 38 32 33 32 30 28 27 26 24 21 19 18
35 24 57 53 55 50 53 55 54 55 53 50 46 43 41 38 37 40 40 40 41 42 41 38 33 33 32 30 27 26 26 23 22
30 26 42 47 48 49 53 54 54 55 54 51 48 45 44 41 39 41 43 42 41 43 43 41 39 37 37 37 34 31 29 26 25
19 17 26 45 46 51 54 54 53 55 55 52 49 47 46 44 43 43 44 42 43 44 43 43 43 43 42 40 37 34 32 29 26
27 18 25 45 50 54 49 54 55 54 55 54 49 48 48 47 45 44 44 44 42 43 47 46 43 42 43 42 39 35 34 31 29
20 9 20 36 38 41 49 53 55 56 55 54 50 48 48 47 46 46 46 46 43 42 41 44 44 42 41 41 38 35 35 32 31
12 12 26 32 32 40 48 50 50 56 57 56 55 50 49 48 46 46 47 47 44 43 40 37 38 39 38 35 35 33 32 31 29
2 10 15 24 27 29 28 39 52 51 57 59 57 54 51 49 48 46 45 45 44 42 40 38 36 34 34 32 32 30 28 25 25
21 27 38 28 23 30 28 34 37 54 56 61 59 58 54 53 49 48 48 47 42 43 39 37 36 32 32 30 30 27 24 26 24
17 31 30 33 36 27 30 37 39 45 56 59 62 60 59 56 53 50 51 47 43 41 33 25 27 29 27 25 23 21 19 20 27
2 8 17 22 32 32 26 27 40 43 47 56 62 60 53 54 50 50 49 42 39 30 26 27 26 23 20 19 17 16 18 20 20
5 6 3 4 17 38 33 25 44 47 47 48 45 43 43 41 45 45 41 34 29 26 28 28 23 18 17 17 16 17 23 20 19
3 3 8 10 9 26 32 33 42 44 42 40 39 40 39 39 39 34 32 29 29 28 23 19 17 16 17 17 16 13 14 16 16
5 0 16 18 22 23 22 28 34 36 36 35 39 41 37 33 29 28 26 24 22 21 19 17 15 16 16 17 16 14 13 10 13
12 14 22 24 28 28 24 24 28 31 32 35 37 36 33 31 29 28 26 23 21 18 17 15 14 12 13 14 14 11 7 9 9
8 8 22 35 34 34 31 27 29 29 27 25 27 27 28 28 29 27 26 26 24 20 16 16 17 16 13 11 9 11 10 10 8
6 10 51 6 30 32 26 23 22 19 21 22 23 28 28 27 28 28 26 23 19 21 20 19 18 15 13 12 11 11 11 9 7

GFSFLT1_850_spd_012.txt.gz
Wind_Speed
38 43 50 53 59 61 63 62 61 60 57 52 50 46 41 35 34 35 34 29 32 30 28 27 25 24 20 18 17 16 14 13 12
35 45 52 55 60 63 63 61 63 61 58 54 50 46 41 39 35 35 37 30 30 32 31 29 28 26 20 19 18 17 15 15 14
43 47 51 53 57 63 62 63 63 60 58 55 50 48 43 39 36 35 38 34 34 33 29 28 29 26 21 21 21 20 17 17 16
47 49 51 56 52 55 62 60 60 61 59 56 53 49 45 41 37 37 37 38 38 38 32 30 32 29 26 25 25 24 21 20 19
49 51 48 58 55 52 51 57 57 60 59 57 55 47 46 42 37 37 38 38 40 41 41 36 35 33 31 29 28 27 24 23 23
22 32 30 28 45 50 55 56 58 59 59 58 55 50 47 43 41 39 39 39 39 42 44 44 39 36 36 34 31 30 28 25 25
35 26 26 35 41 51 53 55 57 59 59 59 56 51 50 46 43 42 40 39 40 42 45 46 47 44 41 39 35 34 32 30 27
27 35 34 33 46 53 54 54 56 56 58 60 58 55 51 49 44 43 42 40 40 42 43 46 46 44 42 40 38 38 37 35 31
27 32 38 33 46 57 56 58 58 57 58 59 59 58 55 49 45 46 46 44 42 41 43 43 44 44 43 43 40 40 40 38 36
23 27 30 36 46 51 56 60 59 56 56 57 58 58 56 52 47 47 47 46 43 42 42 41 40 42 42 39 40 39 38 37 34
13 25 21 31 46 49 60 60 55 55 56 57 58 57 56 54 50 48 48 48 45 43 40 38 34 33 32 32 35 32 28 29 28
24 19 14 19 32 48 50 52 53 54 54 55 56 57 56 55 52 49 49 48 45 41 38 36 32 28 28 28 38 35 31 27 24
25 26 26 26 24 19 21 47 48 49 54 55 57 58 57 55 55 51 48 46 44 40 36 32 28 26 29 29 24 29 25 17 18
8 17 26 29 33 33 30 29 45 48 53 58 55 52 56 59 58 55 49 45 45 39 34 28 26 28 31 25 22 22 14 14 16
6 8 11 19 27 35 39 41 41 47 54 52 50 58 55 53 57 55 51 48 46 35 30 27 31 33 25 22 18 15 16 16 15
7 7 13 18 21 27 36 39 42 46 44 48 53 52 49 49 49 51 51 50 40 35 36 35 33 28 26 21 18 18 15 15 14
4 3 1 5 11 17 29 33 45 49 51 50 53 48 47 49 48 48 47 41 37 38 39 34 30 25 21 18 19 18 16 16 16
10 8 7 8 11 8 11 19 38 46 43 48 50 48 46 43 42 41 42 42 37 34 31 29 27 22 20 22 22 19 13 11 11
18 12 13 13 21 25 30 20 20 36 37 42 45 43 43 40 39 38 37 28 22 21 21 20 19 19 18 18 14 15 15 14 14
21 13 13 20 28 37 49 56 55 19 42 39 35 35 38 36 30 24 24 21 20 28 28 26 24 23 21 16 17 17 15 16 15

GFSFLT1_850_spd_015.txt.gz
Wind_Speed
43 43 48 51 59 58 61 61 61 60 58 56 55 53 50 46 42 38 33 32 31 30 32 29 26 25 24 19 17 16 16 14 14
37 42 48 53 57 59 61 60 63 64 62 60 58 56 52 49 45 42 36 32 32 32 33 31 28 25 23 22 20 19 18 16 15
34 41 45 52 52 58 60 61 62 64 63 61 59 58 54 51 46 43 39 32 33 33 35 34 31 29 27 25 22 21 20 18 17
36 40 48 55 56 55 58 55 56 61 62 61 62 61 56 53 48 45 44 35 34 36 34 35 33 31 29 28 25 24 23 21 19
28 36 52 50 55 52 47 54 54 58 60 61 59 61 58 53 48 46 46 39 36 39 38 35 32 30 30 30 28 26 25 23 22
22 25 33 39 39 35 47 51 55 57 58 59 58 58 58 55 51 48 48 42 40 39 41 40 39 35 32 33 31 28 27 25 25
24 28 31 40 42 42 45 49 53 56 57 56 57 57 56 57 53 47 47 44 41 41 42 43 42 40 37 35 34 31 30 30 29
14 22 31 40 38 42 47 49 50 53 54 54 55 55 57 56 53 47 46 46 42 42 42 42 43 43 41 39 37 34 32 32 32
19 17 28 39 47 49 53 52 53 54 56 54 53 54 56 55 53 51 49 48 45 43 44 42 42 43 44 43 41 38 34 33 34
34 30 31 34 40 49 49 50 53 55 54 53 52 52 53 55 54 52 52 51 48 46 46 44 43 44 42 43 40 36 35 34 27
27 22 16 24 35 41 47 47 44 50 54 54 53 51 52 53 55 53 53 54 52 49 48 46 43 42 40 38 37 37 35 33 28
27 27 26 22 24 41 45 43 42 46 53 52 52 52 52 52 54 54 55 54 54 52 49 47 45 39 36 34 34 33 31 34 27
21 25 25 19 16 23 39 44 43 44 52 54 54 52 51 51 53 55 56 53 53 51 50 48 44 35 34 33 31 28 32 28 26
8 9 15 17 15 16 19 31 41 43 48 53 51 50 51 52 54 54 55 55 52 51 49 46 39 34 33 32 31 30 31 22 21
9 10 7 5 3 5 17 21 28 40 46 45 51 53 50 52 53 54 53 54 53 49 45 41 37 36 34 32 31 31 24 21 17
13 12 11 11 9 8 6 1 14 24 36 44 47 49 53 53 50 51 49 51 51 46 42 37 39 38 38 33 31 24 21 19 17
11 9 6 8 12 15 13 15 14 9 21 33 39 47 53 55 57 54 48 49 47 46 43 41 41 40 36 30 24 22 25 22 22
14 11 7 4 4 10 17 20 20 20 21 20 29 41 48 47 50 51 47 43 43 44 45 41 40 33 25 22 26 30 26 25 28
14 11 11 11 11 12 16 22 28 31 30 25 21 30 42 47 48 47 47 49 47 41 38 26 17 15 2 6 15 21 24 22 19
15 13 13 13 13 14 15 19 26 32 38 35 29 27 34 45 49 50 48 41 42 38 30 14 3 14 27 24 25 26 23 24 24

GFSFLT1_850_spd_021.txt.gz
Wind_Speed
28 31 36 40 43 45 49 48 48 50 49 48 49 48 47 45 44 43 40 36 32 27 26 24 25 24 24 23 19 17 16 16 14
23 29 33 39 46 46 52 52 51 50 51 51 51 50 49 48 47 46 45 41 36 32 27 25 25 24 24 24 22 20 19 17 16
26 27 28 33 38 43 51 52 53 52 51 50 49 48 49 49 49 47 46 44 40 36 32 27 29 27 28 26 24 22 21 20 19
28 27 29 31 34 37 44 46 47 54 55 54 53 51 48 47 47 46 45 46 42 37 35 32 30 31 29 31 28 26 25 23 21
19 21 27 28 27 29 33 43 47 49 52 54 55 56 54 52 48 47 46 46 43 38 37 35 34 32 34 34 32 30 29 27 26
18 15 21 27 21 26 32 37 43 47 49 50 49 53 55 55 53 51 51 48 44 43 40 38 36 35 36 36 36 35 33 31 29
17 18 20 17 22 28 30 37 41 44 48 46 48 48 50 52 53 52 53 50 46 45 42 41 39 38 36 38 38 39 37 34 33
17 23 21 20 20 23 26 34 41 43 44 47 46 48 49 48 47 47 49 51 47 46 46 43 41 40 39 39 40 41 42 40 38
27 32 24 21 24 23 21 22 32 39 42 46 47 48 47 46 46 45 47 48 46 45 46 45 43 44 43 41 44 44 43 42 41
30 35 38 38 35 30 24 22 24 31 39 43 46 47 46 47 46 46 45 45 45 44 46 45 46 46 45 45 45 47 45 44 41
36 41 39 39 35 35 35 30 28 27 33 38 41 43 43 45 46 46 46 46 45 44 46 47 48 47 48 46 46 48 48 47 44
42 42 46 40 36 33 29 30 27 29 32 35 38 39 41 43 45 45 45 47 45 45 45 48 49 49 48 50 49 48 48 46 46
33 32 31 27 24 18 13 19 20 25 31 34 36 37 40 39 41 42 42 45 46 45 44 46 50 51 49 50 49 49 48 46 46
22 25 23 20 22 22 19 19 18 21 25 32 34 34 34 34 36 38 39 41 40 42 43 45 50 53 52 49 48 50 48 44 44
14 15 16 18 20 19 17 14 12 11 13 16 18 20 23 28 29 31 33 37 38 40 40 42 47 50 53 54 51 51 51 47 43
15 16 16 16 16 17 15 14 12 11 11 11 12 15 17 20 22 26 29 33 37 40 41 44 43 44 43 50 50 50 51 47 44
20 21 24 24 22 23 23 19 15 12 10 7 6 7 10 14 19 24 27 30 33 39 39 42 42 43 46 43 40 42 53 46 42
11 19 20 19 19 19 18 15 12 9 7 5 5 6 8 11 15 21 26 30 33 39 44 44 46 47 47 42 50 55 46 36 41
13 15 16 17 16 16 14 11 9 5 2 2 5 7 9 12 16 20 24 29 35 40 44 44 47 47 47 47 47 45 38 36 37
17 16 17 18 18 17 14 11 9 7 6 7 9 10 12 11 12 13 17 23 33 39 43 45 45 44 47 42 43 42 38 47 37

GFSFLT1_850_spd_024.txt.gz
Wind_Speed
22 26 31 34 37 38 37 38 41 39 38 40 42 42 44 42 40 35 31 29 24 21 20 19 19 21 22 22 21 19 18 14 13
21 25 31 34 37 38 38 38 41 46 46 44 44 44 44 45 44 43 34 33 30 27 23 19 20 20 21 22 23 22 20 17 18
24 27 29 30 32 37 39 40 40 42 44 46 46 46 47 47 46 45 43 42 38 34 29 29 22 23 22 23 24 25 24 21 22
27 26 27 28 30 32 35 36 37 39 40 44 45 47 49 49 48 47 45 46 45 42 39 36 32 30 26 26 26 27 27 26 23
25 25 22 22 23 24 28 33 36 40 42 41 47 48 47 48 48 49 48 48 46 44 41 39 37 35 31 31 29 30 31 31 27
11 12 14 18 20 23 26 28 33 35 37 41 40 42 46 45 47 48 49 48 46 45 42 40 39 39 38 35 35 34 35 34 34
4 10 13 13 16 23 24 26 32 38 35 36 37 38 40 45 52 53 51 49 47 45 45 43 43 42 40 40 37 36 37 38 38
11 6 4 8 13 17 20 22 27 33 33 35 36 42 40 47 48 49 51 52 51 49 48 47 45 44 43 41 40 36 41 42 42
20 22 22 21 16 17 16 19 23 25 32 35 37 41 47 45 44 44 44 47 50 50 50 49 47 47 47 46 45 42 43 44 46
22 21 22 20 18 19 19 20 21 23 25 27 36 42 42 44 45 44 44 42 44 46 48 47 49 49 50 51 50 48 47 47 48
26 25 24 23 23 21 21 20 19 18 20 24 31 40 40 43 44 44 36 40 42 43 44 46 48 50 50 52 53 51 50 47 47
26 28 27 26 26 25 25 23 21 19 21 23 28 36 34 38 40 38 38 41 42 42 41 43 47 48 50 52 55 53 52 49 48
25 25 26 25 22 20 20 22 22 21 22 24 30 33 32 33 35 38 40 39 40 41 41 41 37 41 49 53 55 55 53 52 50
20 18 20 20 21 21 22 19 17 20 22 26 26 25 26 30 32 34 35 35 37 39 40 36 39 42 45 49 54 56 56 54 54
26 23 19 18 16 16 16 20 18 20 23 20 21 22 24 27 29 29 28 34 35 34 34 37 40 40 40 43 52 56 59 58 55
20 18 15 11 11 11 9 13 13 15 15 17 18 20 22 22 23 25 28 30 27 29 33 34 35 36 39 44 47 52 57 62 59
10 6 3 2 4 6 7 8 10 10 12 13 13 14 15 16 18 20 21 22 24 26 28 31 34 34 39 39 38 42 43 56 55
6 4 3 6 6 6 8 9 11 11 13 13 9 10 11 12 13 17 18 21 22 25 28 30 31 35 35 37 39 44 48 54 53
7 7 8 9 9 7 9 9 8 8 9 9 9 7 6 8 10 12 15 17 20 26 31 30 35 39 37 35 44 43 48 51 44
11 13 13 14 14 12 8 8 7 5 4 3 4 4 4 3 5 7 10 12 16 18 21 28 34 41 43 48 49 48 51 45 45

GFSFLT1_850_spd_027.txt.gz
Wind_Speed
29 27 28 34 37 37 38 40 42 40 40 41 40 40 39 38 41 30 31 28 23 23 20 20 19 24 21 22 19 19 18 16 13
28 30 28 33 37 39 39 40 44 45 44 44 44 44 44 43 41 42 34 32 31 25 23 20 22 22 21 23 24 22 21 18 20
31 27 29 32 35 39 40 40 44 46 46 47 43 44 44 45 45 44 43 37 36 31 28 26 21 26 24 23 25 26 25 21 21
28 27 29 31 34 37 38 38 38 42 45 44 44 44 45 44 46 47 45 46 43 39 34 33 32 26 28 27 26 27 28 26 22
32 30 29 30 31 30 34 38 38 40 41 43 48 46 47 48 46 45 47 47 48 46 42 39 36 34 35 30 28 29 30 30 26
23 25 25 27 31 31 31 35 38 39 41 42 41 43 43 46 50 51 51 49 46 46 44 42 42 40 39 38 34 32 33 34 33
15 14 8 15 20 25 29 29 34 38 38 38 38 39 41 44 49 53 52 50 50 47 46 44 42 43 42 42 41 39 39 40 39
6 7 10 13 15 18 19 23 27 34 36 36 37 41 43 48 46 45 43 45 49 47 45 44 44 45 45 44 44 41 44 42 42
6 7 8 11 13 13 17 24 25 27 34 35 36 39 46 44 45 44 45 45 46 47 47 47 46 47 48 49 48 46 43 43 44
11 12 12 14 16 15 17 19 19 25 29 32 37 42 40 44 43 45 44 42 43 49 51 48 51 52 51 51 52 51 49 47 46
14 14 15 14 16 18 18 20 19 22 22 29 34 38 43 42 45 43 45 46 48 46 46 50 49 51 52 53 55 55 53 52 49
23 21 20 18 18 19 19 19 15 17 19 24 28 33 41 44 42 43 45 48 47 45 45 45 48 46 46 52 56 56 54 53 53
13 18 15 15 18 18 18 20 22 23 24 25 30 32 34 39 41 44 46 46 44 42 41 43 40 43 47 50 52 53 55 54 55
16 17 17 14 13 13 16 15 17 21 25 27 32 24 26 35 38 42 42 41 39 39 38 35 39 40 41 43 47 52 54 56 55
19 19 18 17 17 15 13 13 14 18 23 26 23 26 26 31 33 32 31 37 35 35 34 35 39 37 40 41 45 47 50 55 57
16 15 13 12 13 13 8 8 11 15 18 18 20 22 24 26 27 28 30 29 31 28 30 30 31 33 37 39 39 40 45 51 53
12 8 7 7 7 7 4 2 3 6 7 9 14 16 20 21 21 22 22 24 22 24 25 26 28 30 32 32 32 35 37 40 44
10 8 6 3 2 4 3 3 3 2 3 5 9 11 13 14 15 18 18 20 21 21 23 23 24 24 25 28 30 32 32 34 37
10 6 3 5 7 5 6 6 6 5 2 5 6 8 9 10 11 12 13 14 15 21 23 19 24 30 30 29 28 33 33 34 41
12 11 7 6 8 8 8 8 9 6 5 6 6 4 8 3 8 8 9 10 10 12 10 13 21 24 32 38 41 44 46 46 44

GFSFLT1_850_spd_030.txt.gz
Wind_Speed
35 34 37 42 45 44 46 44 46 46 47 43 41 42 43 43 39 35 35 31 28 29 26 22 24 22 21 19 19 20 17 17 14
34 37 37 43 43 44 46 45 47 48 48 46 42 41 44 41 45 41 37 37 32 26 27 23 24 24 24 22 21 22 23 22 19
29 35 34 39 44 45 46 49 47 48 47 48 41 42 44 45 44 45 42 39 36 34 27 29 21 27 27 24 22 25 23 25 23
26 32 37 38 42 44 46 45 44 47 47 47 46 41 44 47 46 44 43 44 39 38 35 28 28 21 28 27 24 26 29 29 26
23 28 35 36 40 41 42 44 44 47 47 46 49 46 43 45 46 45 44 46 46 42 41 38 34 33 29 32 30 27 29 32 32
33 23 27 34 38 38 43 45 45 45 48 49 43 44 44 44 46 47 47 46 45 46 44 42 39 39 40 36 34 31 29 31 32
17 24 23 33 33 39 39 43 46 45 44 44 43 41 42 44 47 48 46 46 46 45 47 46 45 44 43 43 42 39 36 34 34
15 21 16 21 28 40 43 41 44 44 43 43 42 43 43 44 44 45 46 45 46 46 46 48 47 46 46 46 45 44 42 40 39
10 11 7 6 7 7 12 28 36 42 43 40 43 44 46 46 44 43 45 45 45 47 49 48 47 49 48 48 49 48 45 43 43
7 3 0 2 5 9 11 14 23 33 40 39 37 42 45 47 46 47 47 47 48 49 49 48 49 49 49 50 51 51 49 45 44
6 6 8 8 11 15 15 18 22 25 26 32 37 40 42 39 45 47 48 48 49 49 49 51 51 51 51 51 53 52 51 49 47
4 8 12 12 14 17 20 22 24 32 32 35 35 36 44 46 42 45 47 50 50 48 48 48 51 51 50 53 55 54 53 51 50
10 9 6 6 6 7 15 13 21 13 28 32 31 30 34 41 43 48 49 49 49 48 47 46 44 47 48 48 50 50 50 49 50
11 11 11 10 11 6 12 7 11 13 19 24 28 30 31 32 36 41 45 45 42 44 43 41 42 43 42 44 45 46 46 45 47
16 14 12 11 11 12 9 15 18 20 20 26 22 25 30 31 28 34 38 39 38 37 38 38 39 38 39 40 40 41 41 43 45
21 16 10 7 9 8 8 8 11 17 19 19 23 17 26 27 25 29 31 30 36 35 35 36 36 36 37 35 32 34 33 34 37
25 18 10 10 9 8 6 4 5 8 10 12 17 18 19 21 22 24 26 28 23 28 31 31 32 28 25 26 26 25 27 31 34
21 19 11 7 7 4 2 3 9 11 12 11 9 14 15 16 16 18 19 21 25 21 20 23 22 23 21 20 22 23 28 27 24
17 18 14 10 6 3 4 7 7 1 8 11 9 10 10 11 12 14 14 15 14 22 17 17 25 25 23 22 24 24 28 29 28
17 18 14 11 10 12 12 10 3 2 3 10 15 11 15 10 13 4 19 10 16 13 20 24 21 22 26 29 32 36 39 41 43

GFSFLT1_850_spd_033.txt.gz
Wind_Speed
55 48 59 56 59 56 53 53 51 51 50 48 46 42 39 41 40 35 34 32 29 30 28 25 20 21 18 18 17 17 18 17 13
41 53 53 53 58 59 59 55 54 54 52 49 47 44 41 40 44 40 36 36 32 29 27 25 21 18 19 18 16 17 20 19 18
37 54 58 53 57 56 60 58 56 53 53 50 47 44 42 41 42 44 41 35 37 32 29 29 23 23 22 23 21 19 19 23 22
47 44 52 57 56 57 57 57 56 53 53 51 47 43 41 43 44 45 46 41 38 39 33 30 32 26 25 29 26 24 21 24 27
35 43 49 56 58 57 53 55 54 53 53 52 49 44 42 42 43 44 46 46 41 41 40 37 32 35 33 24 29 28 25 23 27
25 40 48 52 53 51 52 54 54 52 51 51 48 46 43 41 43 44 44 45 43 42 43 42 40 34 34 37 30 30 29 25 26
36 25 41 49 49 50 52 52 53 51 50 49 47 46 44 44 43 43 44 43 43 44 45 44 42 42 41 36 38 36 34 32 29
24 28 44 46 48 48 51 51 51 50 48 46 46 44 44 45 43 41 41 42 42 41 43 46 46 45 44 45 45 43 43 41 38
26 22 25 33 41 50 55 54 50 50 50 47 45 45 41 39 40 40 42 43 43 44 43 42 43 45 46 47 48 48 47 45 44
21 23 22 20 18 33 37 46 51 50 49 47 47 47 45 43 41 39 40 39 41 44 44 44 44 45 46 48 48 48 49 47 46
18 17 16 15 12 10 13 10 34 47 48 48 46 47 47 46 46 44 41 41 41 41 42 44 44 45 45 46 47 46 46 46 46
25 20 15 10 8 6 3 12 13 28 42 48 48 45 46 47 47 46 45 46 45 43 43 42 44 45 46 48 48 47 45 43 45
22 19 14 7 3 5 6 7 20 28 32 35 45 46 44 42 40 44 45 45 46 45 45 45 43 44 44 45 46 45 44 42 43
21 17 14 5 1 4 6 3 0 11 26 36 35 35 35 37 40 43 44 41 42 45 46 45 46 45 44 43 41 41 40 40 40
29 21 15 10 5 6 8 10 9 6 8 10 21 32 35 32 31 32 37 40 40 40 41 42 43 42 41 39 36 36 35 34 36
25 26 21 11 8 10 8 3 9 13 11 12 13 20 20 22 29 30 28 28 34 37 37 36 38 37 36 35 32 31 30 29 30
22 22 20 14 11 17 7 4 7 11 16 19 22 21 20 25 23 25 23 22 26 28 32 33 32 32 31 28 25 22 25 27 27
23 17 16 13 11 16 11 11 9 10 13 15 15 14 17 19 22 22 20 19 22 23 23 23 25 24 23 24 26 25 25 28 29
20 23 18 15 13 12 14 14 16 13 14 13 12 14 16 18 18 18 17 15 19 23 16 21 19 20 21 27 26 22 21 21 22
21 21 16 16 15 15 16 14 15 13 10 9 10 12 14 12 14 18 17 18 21 26 23 19 20 24 22 19 19 21 25 28 31

GFSFLT1_850_spd_036.txt.gz
Wind_Speed
50 48 49 48 53 61 57 59 59 59 58 55 51 46 42 39 37 34 33 34 31 29 27 25 21 21 19 16 18 17 16 18 18
44 51 51 50 52 56 54 61 61 60 58 55 53 48 43 42 39 37 36 34 34 32 31 27 23 23 22 19 16 18 17 18 20
48 49 48 47 50 55 58 62 63 60 58 55 53 49 45 43 41 39 37 36 34 34 31 29 27 24 23 19 18 17 18 18 19
49 48 53 56 48 54 62 61 61 61 58 54 54 50 47 45 42 41 42 40 36 34 33 31 30 26 22 22 22 21 23 21 19
53 56 62 56 53 54 53 52 55 61 57 55 52 46 46 44 43 42 43 44 41 37 36 34 30 30 30 25 25 27 26 26 23
50 54 54 54 49 50 52 53 54 58 58 56 52 48 46 45 43 42 42 44 42 40 38 37 36 32 34 36 34 27 28 30 27
42 54 54 52 49 51 53 55 58 58 57 54 50 47 46 45 43 41 39 40 42 42 40 39 40 41 39 36 36 36 34 30 29
34 45 51 52 51 51 54 53 57 55 54 53 50 46 44 43 40 38 37 38 39 40 41 40 41 42 45 43 42 39 36 35 35
32 43 50 54 55 54 58 55 56 55 54 51 49 44 42 39 39 38 38 37 36 36 38 39 39 42 43 45 46 46 45 43 40
29 34 48 51 52 58 61 58 56 55 50 49 47 43 40 39 37 38 37 36 37 37 36 36 38 40 41 44 46 46 46 45 45
38 27 30 35 41 41 43 42 46 47 45 46 45 44 40 39 39 37 35 35 37 37 35 36 36 38 40 41 42 41 41 42 43
28 33 34 29 30 36 36 36 38 40 41 42 44 45 43 42 40 38 36 36 34 32 32 32 33 33 35 38 39 37 36 36 38
27 26 27 28 28 27 23 24 26 29 39 43 44 45 43 42 42 40 40 37 36 34 35 35 35 36 36 36 35 34 33 32 33
32 32 28 23 23 22 20 16 13 24 29 37 37 40 39 40 41 39 38 39 38 39 39 39 40 39 39 38 37 35 32 30 31
30 30 28 23 20 18 14 12 10 12 13 27 36 35 35 39 40 38 37 37 38 38 39 40 40 41 41 40 38 35 31 29 28
27 28 27 25 24 20 17 11 7 6 6 8 10 15 26 33 36 35 34 33 33 33 33 35 37 37 38 38 34 29 26 25 26
27 24 21 17 15 16 15 11 7 4 0 4 9 13 16 19 20 21 28 32 31 28 28 30 33 34 32 29 25 25 25 26 27
25 23 21 17 11 8 6 5 5 7 8 7 6 10 15 19 24 24 24 27 27 26 25 24 23 22 23 25 25 25 25 23 22
21 22 18 13 9 6 7 6 6 10 12 12 12 12 12 11 13 17 19 24 24 24 22 21 21 21 21 23 23 24 23 22 21
14 15 15 11 10 6 6 6 6 9 15 12 9 10 12 12 14 16 19 21 24 26 23 21 22 23 22 21 21 17 16 17 18

GFSFLT1_850_spd_039.txt.gz
Wind_Speed
38 35 39 47 45 52 53 54 57 57 57 55 52 51 49 44 38 34 31 30 30 30 29 25 20 18 17 16 16 16 14 15 15
36 37 38 44 48 49 50 54 57 57 57 54 55 51 48 45 41 37 33 32 30 32 29 24 22 19 18 18 17 16 17 16 17
37 42 43 45 45 46 49 52 56 57 57 55 53 53 49 47 42 38 34 33 33 32 30 28 24 22 21 20 20 19 18 19 17
38 41 48 50 46 48 52 47 53 57 58 58 56 53 51 49 45 40 35 35 34 33 32 30 28 27 24 23 21 19 21 20 19
39 45 51 52 56 51 48 49 50 56 56 57 57 54 50 51 45 42 40 36 34 33 33 31 31 28 27 24 22 21 22 22 22
32 44 48 52 48 40 47 48 50 53 55 56 55 54 52 51 49 47 44 38 35 34 34 34 33 33 31 30 28 25 25 26 26
32 43 47 48 45 47 50 50 53 52 53 53 53 52 51 50 49 47 42 38 37 36 34 35 37 35 36 33 30 32 31 28 25
36 43 49 45 48 50 51 50 49 51 51 51 50 49 48 47 43 42 40 38 36 34 35 35 37 38 38 39 38 34 32 33 33
24 38 46 49 51 49 51 55 54 54 52 50 47 47 46 42 42 41 39 37 35 34 34 34 35 39 40 42 42 43 41 38 36
28 35 42 47 47 50 54 57 57 56 51 49 47 46 45 45 43 41 36 35 36 35 34 33 35 36 38 41 43 43 42 42 43
12 32 47 48 50 51 55 52 57 47 46 45 43 44 44 44 45 42 38 39 38 36 36 36 35 34 35 37 39 38 38 40 42
14 21 32 39 43 43 42 48 51 47 43 40 42 42 42 42 40 37 37 36 35 32 33 33 33 33 32 34 34 33 32 32 35
25 19 22 27 30 32 34 37 42 43 40 39 40 40 39 38 34 34 34 31 29 26 27 27 28 28 28 26 27 26 23 25 28
26 32 31 24 28 27 29 34 33 33 33 35 34 36 38 36 32 33 33 31 29 28 29 29 31 31 31 31 30 29 27 25 27
29 32 33 34 34 29 23 33 33 32 31 33 33 33 35 35 36 36 35 34 32 32 33 34 34 34 34 34 33 30 28 27 27
28 29 31 31 32 31 28 24 19 24 21 24 25 27 28 26 25 29 32 33 32 32 31 31 31 32 32 32 29 27 25 22 20
28 25 23 22 23 24 22 18 15 14 13 12 11 11 13 17 20 23 25 26 28 28 30 29 29 28 28 27 26 22 19 19 22
27 25 22 18 16 16 15 10 7 6 6 7 8 9 10 12 13 14 16 19 22 26 26 25 23 21 17 17 19 18 19 20 21
23 24 22 19 15 11 10 6 3 2 3 7 11 14 14 13 13 15 18 20 21 24 24 22 19 18 17 17 16 16 17 18 18
18 19 21 21 16 11 10 7 5 5 4 4 6 11 16 16 13 13 12 13 16 19 21 20 18 17 17 17 17 16 16 15 15

GFSFLT1_850_spd_045.txt.gz
Wind_Speed
27 32 35 37 38 39 41 44 46 45 45 44 45 44 43 41 37 35 32 30 28 23 23 25 25 22 20 17 13 11 11 10 10
27 33 37 39 39 40 43 44 46 46 44 43 46 47 46 43 41 39 36 31 29 27 22 20 20 21 18 18 16 14 12 13 11
25 29 32 34 38 42 45 48 48 46 44 44 45 45 45 44 42 39 36 33 30 29 25 19 19 21 21 19 18 16 15 15 13
28 29 32 34 40 46 49 45 48 50 48 46 45 45 45 45 42 39 37 35 31 30 27 22 21 22 24 22 21 20 19 18 17
31 31 33 36 37 37 40 47 49 51 52 51 48 45 45 45 43 38 38 37 34 31 29 26 24 23 26 24 24 23 22 20 19
21 28 30 31 29 35 42 46 50 50 48 51 50 48 47 46 45 43 39 36 35 33 30 29 26 26 27 28 27 25 24 23 22
15 19 24 25 27 35 42 44 49 51 50 44 46 47 46 47 47 44 40 36 34 32 31 31 29 28 28 29 29 28 27 26 25
7 11 16 25 33 38 41 42 45 48 47 47 44 45 45 45 44 44 42 41 37 32 31 32 31 29 30 30 29 30 29 29 28
15 16 16 18 28 36 40 44 48 46 50 47 45 44 42 41 41 42 41 41 39 37 33 33 33 34 32 32 33 32 31 30 30
15 17 18 20 25 34 40 43 48 48 47 46 44 42 39 38 37 38 38 37 38 37 35 34 36 35 34 36 35 34 33 32 33
17 20 22 24 27 33 42 42 41 41 42 47 44 42 39 35 34 34 34 36 37 36 35 36 36 36 36 36 37 36 34 34 36
17 21 26 28 30 35 38 41 43 44 43 44 43 43 40 37 36 34 35 36 35 35 35 36 36 35 36 36 36 35 33 33 35
15 15 16 20 24 26 35 40 43 44 45 43 42 43 39 35 33 32 31 30 32 32 32 33 34 35 35 35 34 33 30 30 33
13 13 15 6 19 27 35 41 43 43 42 40 39 39 38 35 32 33 30 29 30 31 32 32 32 33 33 34 33 31 29 29 32
27 24 19 11 16 25 29 31 33 36 38 36 36 35 32 30 29 30 30 31 31 31 31 32 32 31 31 30 27 24 22 23 26
35 35 30 22 17 20 23 28 29 30 30 32 29 27 28 27 26 28 29 28 29 29 29 29 29 28 28 25 24 23 23 23 24
40 37 36 28 26 24 19 16 19 19 22 25 26 28 28 26 25 25 25 26 26 28 29 29 28 26 24 22 22 21 20 20 21
38 39 38 34 31 29 25 21 17 13 13 17 17 23 25 26 26 26 27 26 26 26 27 25 25 23 23 22 21 19 17 18 18
33 35 37 36 32 28 23 19 16 13 12 12 14 14 17 20 23 26 28 28 26 26 26 23 22 23 20 21 18 17 17 16 15
23 25 31 33 29 24 21 19 15 11 7 6 8 9 12 8 8 25 20 27 26 26 27 25 23 22 20 19 18 17 16 16 16

GFSFLT1_850_spd_048.txt.gz
Wind_Speed
26 28 31 34 37 38 39 40 39 38 38 40 43 44 42 38 37 29 27 25 19 18 17 16 15 15 15 14 12 10 9 8 7
22 27 31 35 36 38 38 39 43 44 43 44 41 40 44 41 39 37 28 27 24 22 19 16 16 17 17 16 16 15 12 10 9
23 24 28 31 35 38 38 39 40 40 38 40 43 39 41 40 41 41 38 29 30 24 21 21 18 16 17 17 17 17 16 12 12
31 24 28 32 35 38 40 38 38 41 40 37 38 43 41 42 39 40 41 35 35 32 28 25 21 20 18 19 18 18 20 18 14
31 29 28 30 33 34 36 39 39 40 41 39 38 43 47 46 45 42 35 39 36 34 31 28 26 24 22 21 20 19 20 20 16
26 28 29 30 28 31 36 40 42 42 41 41 39 38 41 41 40 40 41 40 37 35 32 29 28 28 26 24 23 21 22 23 20
23 30 22 26 28 30 33 37 42 45 43 41 39 38 39 41 45 43 42 42 39 36 33 30 30 31 28 27 26 24 23 23 24
4 10 19 22 25 29 32 36 39 43 41 40 40 43 41 43 47 47 45 42 40 37 34 32 32 32 31 29 27 25 27 25 24
13 12 8 12 21 25 28 33 40 41 46 44 44 46 49 46 48 47 46 45 43 40 36 35 34 34 33 32 28 27 30 28 24
14 13 12 13 16 20 26 31 36 42 46 45 45 47 47 47 49 49 47 45 43 42 40 37 37 36 35 35 33 31 31 30 30
10 10 12 14 16 19 25 27 30 33 33 42 45 45 48 47 49 48 47 47 46 44 41 41 40 38 37 36 36 34 33 32 32
9 13 17 19 19 23 22 25 30 32 33 36 42 47 48 47 46 45 45 46 45 43 41 40 40 39 39 39 38 37 34 34 35
12 14 17 21 20 23 26 28 30 34 36 38 45 48 45 45 44 43 43 43 43 42 41 41 38 38 39 40 39 38 37 35 35
9 14 18 19 20 25 30 29 33 40 39 43 44 36 34 38 41 41 40 39 37 37 39 36 39 37 37 38 38 37 37 35 36
10 10 11 10 10 14 19 27 37 39 44 37 34 35 36 38 39 36 33 36 35 35 36 37 36 36 35 33 37 38 37 35 35
19 18 17 8 2 10 14 21 30 31 30 28 28 29 34 34 34 35 33 35 34 32 33 29 31 28 28 26 25 29 32 33 33
27 25 24 19 13 15 14 16 19 21 23 27 26 26 27 25 26 28 29 27 28 28 28 29 28 28 26 25 24 23 22 31 31
29 29 30 28 25 22 21 20 18 19 16 23 23 24 22 21 21 22 21 21 23 24 23 25 26 25 23 23 24 23 23 21 21
26 28 30 30 30 29 22 21 20 15 18 15 19 21 21 20 19 17 18 20 22 24 26 28 28 26 23 23 24 24 24 23 24
21 25 28 28 26 23 25 22 23 22 15 14 14 22 18 15 18 19 24 25 16 5 13 19 26 28 29 25 23 25 21 20 21

GFSFLT1_850_spd_051.txt.gz
Wind_Speed
37 35 34 36 38 40 43 43 44 43 42 42 42 43 42 41 38 26 27 23 19 19 17 15 16 16 14 12 11 9 9 7 8
30 38 35 34 37 39 41 42 45 47 43 44 44 39 43 43 41 36 26 26 25 19 19 16 17 14 14 15 14 12 12 11 9
22 33 35 33 35 38 40 41 43 43 44 44 45 43 44 43 40 40 35 30 27 24 21 22 13 18 18 17 17 16 17 12 13
24 24 26 29 33 37 40 39 39 42 43 42 42 43 43 43 42 37 39 35 34 31 24 22 23 18 17 18 18 18 20 18 14
36 32 27 29 31 35 37 39 39 41 42 42 43 44 45 45 43 41 36 41 39 32 32 27 23 21 21 19 20 19 20 19 17
30 33 34 29 31 34 37 38 39 39 40 41 40 41 43 42 41 44 42 40 42 37 35 33 26 25 24 22 23 23 22 21 20
31 26 32 33 32 32 34 37 41 41 41 40 38 37 39 43 45 45 43 42 42 41 38 36 33 29 27 25 23 23 23 22 22
18 22 27 28 32 31 34 35 38 42 41 40 40 42 41 45 47 47 45 43 43 43 40 38 35 32 31 29 25 23 26 26 24
10 12 10 13 25 24 30 34 37 40 44 42 43 44 46 45 45 46 46 46 45 44 43 40 37 36 34 33 28 26 27 26 26
26 18 16 11 17 26 26 29 32 37 44 46 43 44 45 43 44 47 48 47 46 45 45 42 41 39 37 37 36 29 29 30 30
13 9 6 12 16 18 21 26 29 31 34 43 44 46 42 45 44 47 48 47 49 48 45 44 43 42 40 39 38 34 32 31 31
10 10 12 18 19 19 19 21 24 30 34 38 45 43 48 47 48 46 47 49 50 50 47 45 45 44 42 42 41 36 33 32 32
11 13 16 19 20 20 21 24 24 28 34 38 44 48 50 49 48 47 49 51 51 50 49 48 46 46 45 44 42 39 37 35 34
8 11 14 17 20 23 24 24 27 32 35 41 47 46 42 43 46 47 48 46 47 49 50 40 46 39 43 44 43 42 40 39 39
5 8 12 14 16 21 24 26 30 36 36 44 37 37 40 41 41 41 37 40 41 40 40 40 37 40 35 33 41 41 40 40 39
6 5 5 7 10 14 16 21 32 35 42 34 37 38 40 39 37 38 35 38 39 35 35 33 34 30 32 31 30 31 36 38 39
11 13 9 4 2 7 2 9 18 27 28 34 34 36 37 35 36 36 35 30 29 28 28 28 27 28 27 28 29 29 25 30 33
20 20 22 22 15 13 10 9 12 16 22 29 31 33 34 35 32 32 33 26 27 26 26 27 27 25 25 25 27 28 27 26 29
21 26 21 25 24 18 17 16 14 15 18 27 29 31 32 32 30 30 31 33 33 31 31 30 28 28 26 22 28 28 30 31 28
18 23 26 25 22 20 15 21 16 16 16 21 28 30 30 30 31 31 33 32 28 33 33 28 33 31 32 26 18 26 22 27 30

GFSFLT1_850_spd_054.txt.gz
Wind_Speed
21 42 43 43 48 48 50 49 47 46 46 42 41 43 41 38 35 32 29 19 23 17 17 20 16 15 11 11 10 9 8 8 10
38 19 25 42 43 46 48 47 49 48 48 45 43 43 44 44 40 36 34 30 23 22 21 15 17 17 13 13 13 9 10 7 7
25 27 27 26 40 42 44 48 46 46 44 47 45 43 46 45 46 43 36 35 27 25 21 19 14 18 18 15 16 15 14 10 10
34 50 42 13 17 38 43 44 44 47 45 44 46 44 44 47 46 45 42 35 33 30 28 23 27 16 17 17 17 20 19 17 15
38 37 38 41 37 34 46 46 46 46 47 45 47 47 43 46 46 44 44 44 38 36 32 31 28 27 20 20 21 20 21 19 23
11 43 48 46 32 59 51 49 46 45 46 48 43 43 44 42 44 45 45 44 46 38 38 35 34 31 29 29 24 22 21 20 19
12 14 49 45 45 34 44 47 46 44 44 44 44 41 42 44 46 46 47 44 43 45 40 39 38 35 32 29 26 23 24 24 22
31 19 19 22 24 32 59 48 46 45 41 44 42 43 43 46 46 47 45 45 43 42 47 43 40 37 34 32 29 27 27 27 26
35 39 30 10 12 27 41 46 48 48 46 43 44 44 47 43 45 45 45 45 43 43 42 44 43 40 37 35 33 30 25 25 26
33 41 49 15 11 11 18 30 47 49 50 46 45 44 43 44 43 46 46 44 45 43 44 43 44 42 39 38 37 33 27 27 28
35 39 44 17 12 13 6 24 23 37 42 44 44 46 43 44 44 46 47 46 45 46 45 45 44 43 41 40 39 36 32 30 30
33 36 39 18 11 13 15 15 6 27 34 41 44 44 49 46 49 48 48 48 47 48 46 46 45 43 43 43 41 39 35 33 34
31 24 18 15 13 13 17 22 20 18 28 35 45 49 48 48 48 49 50 49 47 47 47 47 45 44 44 44 42 40 38 35 34
20 13 30 18 17 15 18 23 26 27 24 34 42 45 44 43 45 50 47 46 45 45 46 44 45 45 44 44 44 42 40 38 37
16 11 16 15 16 16 17 25 28 34 37 28 38 39 43 41 46 44 44 44 44 43 43 42 40 41 39 40 43 43 41 40 39
10 11 15 16 13 11 14 18 22 32 41 42 26 40 41 43 43 45 41 43 42 42 42 41 42 38 40 36 35 42 42 41 41
6 8 11 11 10 14 21 23 14 27 30 40 38 37 43 42 42 42 43 40 42 43 42 42 38 39 36 35 35 33 34 32 29
1 5 2 4 5 9 14 16 17 19 27 30 34 36 43 43 41 41 41 42 38 40 39 40 40 36 35 32 31 34 35 32 31
12 10 7 4 5 4 4 10 12 14 20 23 33 38 38 40 39 38 39 41 37 36 36 36 35 31 30 33 33 30 30 29 33
9 13 12 9 7 3 4 6 8 13 15 20 24 30 33 34 37 37 41 42 44 43 41 38 37 36 38 35 32 34 32 27 35

GFSFLT1_850_spd_057.txt.gz
Wind_Speed
48 43 28 42 49 47 46 46 49 49 47 43 43 42 40 36 38 34 30 23 20 19 13 12 13 9 9 9 9 9 9 11 16
27 28 21 14 37 50 50 47 50 52 50 46 43 44 42 42 37 38 36 30 26 24 18 14 18 17 13 11 8 10 10 9 13
31 37 30 21 20 27 45 49 46 49 49 48 43 43 45 46 43 38 38 35 30 30 27 24 17 20 21 15 10 13 11 10 11
41 42 42 33 13 28 31 46 45 48 51 49 47 44 43 46 48 44 39 39 36 31 29 28 22 16 20 17 12 13 16 13 13
46 47 46 42 27 38 38 40 49 51 51 52 50 47 45 44 47 49 45 42 41 37 32 29 23 22 22 21 17 15 18 17 17
27 34 45 48 29 43 54 43 46 49 52 52 50 49 47 46 45 48 51 47 44 42 39 34 31 24 25 24 22 19 17 19 19
29 18 30 37 38 48 56 50 42 47 49 49 48 49 50 49 47 47 48 49 47 45 41 38 39 35 33 32 32 27 23 21 19
23 23 15 12 17 31 32 53 46 39 49 52 49 48 51 52 47 45 44 46 46 46 46 43 40 40 41 37 33 29 26 24 23
21 22 16 18 27 32 47 47 52 38 40 51 54 51 52 49 46 43 44 44 44 43 46 47 43 42 42 40 37 33 29 27 26
32 33 32 32 34 20 43 41 24 40 47 47 53 54 52 50 46 44 43 44 43 44 43 44 48 45 42 42 40 36 31 28 28
30 34 40 26 23 5 27 33 24 28 30 38 52 57 56 53 50 46 43 42 44 43 43 42 43 46 45 43 41 37 34 30 28
28 30 38 36 23 14 19 4 18 26 27 20 34 44 56 55 52 48 46 43 41 42 42 43 41 41 42 43 41 38 35 32 31
37 39 40 39 37 37 29 18 7 11 43 55 41 40 54 53 52 49 48 44 42 40 40 41 42 42 41 41 41 39 37 34 34
42 44 42 35 33 35 40 28 17 10 12 34 39 48 44 55 53 51 48 45 43 41 40 40 41 42 42 41 41 40 38 37 37
45 45 40 35 31 36 27 22 22 15 23 26 24 24 42 52 53 50 48 47 46 44 42 42 41 42 42 41 40 39 39 38 38
41 43 35 35 32 41 26 26 25 27 27 19 12 23 23 49 44 45 46 47 48 46 45 44 43 43 43 43 42 41 40 38 36
31 29 25 26 36 34 30 26 25 26 27 28 25 23 30 29 47 42 43 45 46 47 47 46 44 44 44 43 41 40 41 40 38
25 25 19 19 22 25 23 25 23 25 28 28 30 31 28 32 40 47 44 46 46 47 48 48 46 45 42 41 42 43 41 41 40
21 16 17 19 17 15 19 20 21 22 23 26 30 33 31 35 36 47 47 47 47 45 46 45 44 40 40 41 41 38 35 34 35
17 11 8 8 9 14 14 16 14 22 21 24 25 31 35 32 39 44 48 47 50 45 42 43 43 40 37 37 37 30 34 29 26

GFSFLT1_850_spd_060.txt.gz
Wind_Speed
36 37 40 43 43 46 51 50 50 47 44 40 35 36 36 37 37 33 29 23 25 23 22 17 13 14 14 11 12 12 15 17 19
40 44 42 44 47 48 50 51 50 50 47 44 39 36 39 38 39 38 35 28 26 25 23 14 17 14 14 13 11 10 11 14 16
35 36 44 39 50 51 52 54 51 50 48 46 42 39 37 41 40 41 40 34 29 27 25 21 17 18 19 17 15 11 11 13 15
31 36 47 39 47 48 48 47 49 50 50 49 46 44 40 39 43 42 43 41 37 30 29 25 24 21 17 23 19 14 14 14 16
18 22 24 33 39 48 45 45 43 45 50 50 47 44 44 42 41 45 44 44 43 38 32 30 29 27 22 24 23 18 15 17 17
24 25 32 34 35 21 18 30 49 47 46 49 49 47 45 45 43 44 48 46 45 43 38 34 33 33 29 24 24 21 16 16 18
7 11 13 20 24 17 11 14 25 34 44 47 49 49 48 46 45 44 44 48 48 46 44 40 37 33 32 29 27 26 21 17 16
23 16 3 1 14 24 28 25 23 27 31 41 48 48 50 49 47 44 43 43 47 50 48 47 44 40 37 32 31 30 28 24 22
25 22 11 19 26 20 32 31 35 32 30 28 42 46 49 49 48 47 46 43 43 46 50 52 49 48 44 41 38 34 31 28 25
18 20 23 28 29 26 34 17 8 29 34 31 36 43 47 47 47 46 46 44 42 44 45 48 53 52 48 46 44 43 39 34 31
19 22 25 28 31 27 28 22 12 12 9 28 36 36 39 44 47 45 44 42 41 43 44 46 49 51 52 50 48 45 42 38 35
23 25 28 29 29 28 28 27 27 19 16 21 25 43 42 34 42 45 48 44 40 40 42 43 45 47 46 51 50 46 43 40 39
23 25 29 33 30 27 17 20 24 20 15 19 30 36 43 39 32 40 52 49 45 41 41 41 42 43 46 46 46 46 42 40 40
28 26 28 33 33 25 22 17 17 18 20 22 21 27 36 38 36 32 49 53 52 45 43 42 41 42 42 44 44 43 41 38 38
39 39 33 32 34 24 22 22 20 21 21 23 22 18 23 25 31 35 41 52 56 53 48 45 43 43 42 41 41 40 38 37 37
39 42 38 37 36 30 23 23 22 23 25 20 18 19 24 37 40 42 50 49 56 57 52 50 48 46 45 44 41 40 38 36 35
40 38 35 37 34 33 31 26 24 22 23 23 17 33 26 31 35 37 50 53 57 56 54 54 52 50 48 45 43 42 39 38 36
38 33 28 31 32 31 35 30 30 24 24 24 24 29 33 28 29 35 39 47 54 54 55 52 52 53 49 46 45 44 39 38 37
36 34 24 28 27 27 31 32 31 30 28 23 25 26 30 28 26 31 32 36 49 50 52 51 49 50 47 43 40 38 35 33 32
25 19 22 29 28 30 31 30 30 30 29 26 27 28 29 29 27 27 32 36 44 51 51 49 47 45 46 44 40 33 31 31 27

GFSFLT1_850_spd_063.txt.gz
Wind_Speed
33 33 39 36 40 43 47 46 53 52 47 41 37 32 28 29 30 31 28 25 21 22 20 17 11 13 14 10 12 14 14 17 17
30 34 39 44 42 44 48 47 54 53 48 45 40 34 28 30 31 35 32 28 21 22 22 19 17 15 13 14 12 15 15 16 17
32 31 34 41 42 45 47 49 51 53 50 47 42 37 33 27 32 35 36 31 28 22 22 22 22 18 15 14 15 14 15 13 15
26 26 31 33 44 36 45 47 50 53 52 50 47 42 36 32 29 33 36 35 33 29 23 22 21 18 17 18 17 16 15 15 15
22 23 28 27 32 29 28 38 45 50 52 51 50 45 41 37 31 29 34 37 38 35 30 26 25 23 22 20 19 21 20 17 17
18 11 12 11 19 20 17 20 33 41 46 49 50 49 46 42 39 34 32 35 39 40 37 33 29 28 27 25 23 22 24 21 18
28 26 19 14 16 11 4 8 10 22 34 43 47 49 48 47 44 40 34 32 36 40 42 40 37 33 29 28 27 25 23 22 19
32 29 31 23 8 19 17 19 12 18 24 33 37 43 46 48 47 43 38 36 33 35 42 42 43 40 36 32 29 28 29 26 24
26 26 28 28 25 12 23 25 17 14 27 31 30 34 39 42 42 46 43 38 38 36 35 41 44 45 44 41 38 34 32 31 29
23 25 26 26 25 22 19 23 20 13 8 24 36 27 30 34 38 44 43 40 40 39 38 37 40 45 48 47 45 42 38 37 34
25 26 27 27 26 22 15 14 19 16 6 4 24 28 27 30 34 40 40 40 40 39 37 38 40 41 44 48 50 47 45 42 40
27 27 27 28 26 24 23 16 20 20 11 3 4 16 24 27 34 38 39 40 41 38 35 35 38 40 42 43 46 48 47 45 43
34 31 29 29 29 28 25 23 18 19 19 10 9 10 18 20 33 39 39 38 37 38 34 34 34 36 37 41 42 44 44 44 46
35 36 35 32 30 31 27 26 25 20 18 20 15 10 11 20 20 30 36 36 37 34 31 32 35 37 36 34 37 41 42 42 40
38 37 36 34 34 32 32 28 29 27 23 19 21 16 8 7 14 25 27 29 30 31 29 35 34 36 40 38 34 34 37 40 41
32 33 35 33 35 35 36 32 28 33 29 26 23 19 17 17 14 16 26 28 30 31 33 35 36 39 41 42 38 36 34 34 36
24 25 32 32 30 35 36 37 31 31 36 31 27 25 24 20 22 17 16 22 23 25 34 38 39 40 43 43 41 39 37 35 33
22 26 31 33 31 33 36 34 35 31 36 36 34 28 27 24 25 21 17 18 20 25 29 35 39 42 42 42 42 41 37 33 33
25 26 26 33 34 32 35 33 32 32 34 37 38 34 31 27 26 24 19 17 24 24 27 32 40 42 43 42 39 37 37 35 32
33 30 26 19 28 30 30 30 33 32 33 35 41 36 35 32 28 26 23 26 23 31 30 34 40 42 45 44 41 36 34 33 29

GFSFLT1_850_spd_066.txt.gz
Wind_Speed
28 31 32 37 38 36 43 42 40 36 39 43 39 36 31 27 28 26 24 23 21 19 16 12 11 9 9 7 7 11 9 11 13
26 34 41 38 37 40 39 43 43 41 37 43 44 37 32 28 26 29 26 26 24 20 17 15 15 14 10 11 9 8 11 10 13
16 29 35 39 37 36 39 40 42 41 38 39 47 40 35 30 26 27 27 27 26 23 18 17 16 15 14 11 10 10 10 11 12
9 19 26 29 35 31 36 39 41 41 42 39 48 46 38 35 31 27 28 30 29 26 22 19 17 15 15 14 12 11 11 9 11
25 12 9 13 22 25 22 32 35 37 41 41 45 47 43 39 33 31 30 30 31 30 28 23 20 19 18 15 14 13 15 13 12
31 29 25 16 11 14 17 17 26 30 35 39 42 47 47 44 40 36 33 31 31 32 32 30 26 23 23 21 18 17 15 16 17
29 31 26 26 22 19 14 9 14 20 26 33 36 39 44 46 45 42 38 34 31 32 33 35 33 30 28 26 23 21 19 18 18
30 30 30 24 23 19 17 11 6 6 17 21 25 32 39 43 44 45 44 42 37 33 33 36 37 36 34 31 29 26 24 22 21
25 26 26 26 22 16 17 18 13 6 3 21 23 26 34 38 39 41 42 43 42 39 37 35 38 39 40 38 37 33 29 24 24
20 25 25 24 23 22 16 14 16 16 11 7 24 30 31 34 35 37 37 36 39 41 40 38 37 38 41 41 40 39 36 33 30
20 27 28 25 24 21 18 15 14 13 15 7 7 25 29 30 34 33 33 34 35 35 37 39 38 38 38 39 41 42 41 40 38
24 31 29 28 26 25 21 17 16 17 12 11 9 3 17 26 28 30 29 30 31 32 34 34 35 37 39 40 38 38 39 43 44
34 32 30 31 29 27 26 21 18 17 16 12 14 6 7 17 24 31 32 32 31 31 32 32 31 33 34 35 35 35 36 36 41
36 35 36 33 31 31 28 27 25 20 19 14 17 12 8 9 18 20 29 33 31 31 32 33 32 31 31 32 30 28 28 32 37
37 37 38 33 34 34 32 28 28 27 23 17 17 14 13 10 8 11 22 28 32 32 29 30 31 32 31 30 28 28 27 26 31
36 34 35 33 33 36 36 32 30 33 29 25 22 17 14 15 15 14 13 27 27 28 30 31 29 29 29 31 31 28 26 25 25
35 33 33 34 33 35 37 34 32 35 33 28 26 24 18 19 18 19 15 16 28 36 35 35 32 34 34 32 30 28 26 25 25
35 36 33 32 32 35 39 36 35 34 36 32 27 28 25 21 21 21 21 18 17 23 34 37 34 34 31 30 29 27 22 21 25
32 34 36 38 41 42 42 38 38 36 34 34 31 30 29 26 24 23 25 25 24 19 23 27 30 26 28 23 20 22 21 19 20
30 31 31 35 39 42 40 39 38 35 34 32 34 32 31 29 27 26 27 27 29 29 23 21 27 28 31 25 22 23 25 23 21

GFSFLT1_850_spd_069.txt.gz
Wind_Speed
16 27 30 32 32 34 37 38 37 34 30 26 32 33 29 26 26 26 23 19 19 16 14 11 9 8 8 6 8 9 8 9 12
6 18 27 29 29 32 34 39 41 39 34 31 27 34 32 29 28 28 27 23 20 18 17 15 13 11 7 9 8 6 10 9 10
12 11 19 22 27 27 30 34 36 37 36 33 30 31 34 32 30 27 27 25 23 23 20 18 16 14 12 10 9 10 7 9 9
24 12 6 14 17 20 23 27 28 33 35 36 35 33 35 36 34 31 27 26 25 24 23 20 18 16 14 13 12 11 10 8 9
24 24 20 14 4 10 15 23 26 31 32 34 36 35 32 37 36 35 32 26 26 27 26 25 20 18 16 15 16 15 13 11 10
26 27 28 23 15 13 8 4 12 20 26 28 31 35 36 34 42 39 36 30 26 28 31 29 26 23 21 19 18 16 14 13 14
26 29 28 28 27 21 12 4 4 9 18 18 20 25 29 32 35 42 40 36 31 28 28 32 32 30 26 24 23 22 19 17 15
21 27 28 26 25 24 22 15 9 2 10 20 22 22 25 28 30 33 40 41 38 34 32 30 32 34 33 30 28 27 25 21 19
17 19 21 23 21 22 22 21 15 10 7 7 18 26 27 26 31 32 34 36 38 39 38 35 33 35 37 37 36 33 30 26 25
14 17 20 21 21 20 21 21 18 14 10 9 7 18 27 29 29 30 31 32 34 36 37 38 38 38 36 38 40 40 37 33 30
12 19 22 23 23 23 19 19 17 15 13 10 10 13 16 28 30 28 28 29 31 31 32 34 35 38 39 39 38 40 41 39 38
19 22 23 23 23 25 25 22 20 16 15 14 8 8 9 14 21 25 25 27 29 28 30 32 33 35 37 39 40 38 37 39 41
29 26 26 27 27 27 27 25 24 21 17 14 14 12 8 8 14 21 24 27 29 30 30 30 30 32 34 35 36 37 37 37 38
24 25 27 28 28 26 25 27 28 26 22 19 16 16 14 10 12 16 26 28 27 28 29 28 31 32 32 32 33 33 34 36 39
24 26 25 23 25 30 26 26 27 29 29 23 21 19 19 16 12 11 15 21 24 25 26 27 28 31 31 33 35 35 35 35 36
26 26 25 24 24 26 28 25 25 29 30 30 25 24 22 21 20 18 14 16 18 25 26 29 30 30 29 31 32 35 36 36 35
27 27 27 25 26 27 29 29 27 29 30 30 31 28 28 25 26 24 19 17 16 20 23 28 31 32 32 29 27 31 34 36 36
27 32 30 29 26 28 30 30 33 32 35 33 32 33 31 31 28 28 25 22 20 20 21 23 28 28 27 27 29 31 32 32 33
29 31 30 31 31 30 30 33 34 36 35 33 32 34 34 34 31 29 28 28 27 25 22 22 23 31 35 31 35 34 31 28 29
25 29 32 33 33 34 35 36 32 30 29 29 28 28 30 32 33 32 32 30 29 31 28 27 25 23 27 33 35 33 29 26 24

GFSFLT1_850_spd_072.txt.gz
Wind_Speed
19 26 26 26 28 29 30 29 26 25 22 22 23 27 26 23 21 16 16 13 12 11 9 8 9 10 9 9 10 10 10 7 10
5 20 23 24 25 26 28 29 28 26 23 24 22 21 26 26 24 20 17 16 14 13 12 11 11 10 10 10 9 10 10 9 12
14 6 14 19 22 22 24 26 27 25 24 24 25 23 20 25 26 24 21 19 17 15 14 14 14 14 13 11 11 10 9 10 10
22 24 15 3 4 18 18 20 23 24 25 24 23 24 23 22 24 26 23 22 20 19 17 16 17 17 15 14 13 12 12 11 11
20 21 23 20 12 10 11 15 18 20 21 23 23 22 23 25 25 24 22 24 23 20 20 18 18 17 18 17 15 15 14 13 11
20 21 23 23 18 15 14 10 6 11 16 18 19 19 21 26 26 26 26 25 25 24 22 22 19 18 18 17 17 17 17 15 14
19 21 22 23 26 23 17 9 10 11 3 6 14 19 18 20 26 28 24 26 28 27 26 24 25 23 20 20 18 18 18 17 16
18 21 21 21 22 23 22 18 11 8 7 2 5 11 16 18 19 20 23 24 27 30 29 28 26 27 26 24 20 20 21 20 19
14 17 20 19 18 20 21 21 17 9 7 3 3 8 14 16 19 18 20 22 26 29 31 33 32 29 28 28 27 26 27 25 20
11 14 16 17 20 20 19 19 18 17 12 7 3 4 7 15 20 19 19 20 21 26 32 33 35 36 33 33 32 32 33 33 28
11 14 16 16 16 17 19 16 14 14 14 12 6 4 1 6 11 16 17 20 22 23 25 27 31 34 37 38 37 34 33 36 37
13 15 15 15 16 17 18 17 19 16 12 13 13 11 6 6 3 9 12 19 24 25 25 26 27 29 32 36 38 37 36 35 36
16 15 17 18 18 17 16 17 18 18 18 18 14 13 12 10 9 9 11 19 26 28 28 29 26 26 29 31 36 37 37 37 37
15 16 16 18 19 18 16 17 18 18 18 18 20 18 16 15 14 9 9 13 20 25 27 28 27 29 27 29 31 37 40 39 39
15 16 17 16 17 17 19 18 18 19 19 19 22 22 23 20 18 16 15 18 18 17 23 28 29 30 28 28 30 33 38 39 40
15 16 18 18 18 19 18 19 19 22 22 23 24 25 25 27 24 23 21 20 20 19 16 22 28 30 27 28 27 29 33 39 40
14 15 18 18 20 20 20 18 20 23 24 24 25 27 27 27 30 30 28 23 20 21 18 18 20 24 32 29 27 27 28 29 34
15 16 17 18 19 21 24 23 22 21 24 25 27 27 27 26 26 32 31 27 23 22 25 20 19 23 23 28 30 30 29 29 27
17 19 20 19 20 23 25 25 25 24 25 25 27 28 27 25 25 26 26 27 27 26 31 31 26 28 28 29 27 28 29 31 35
19 20 21 21 22 25 26 26 27 28 25 26 24 28 27 27 26 26 27 28 27 28 28 30 35 32 30 28 25 30 36 36 36

GFSFLT1_850_spd_075.txt.gz
Wind_Speed
24 27 28 27 29 33 32 31 27 25 23 20 20 19 18 16 15 12 14 12 12 7 6 7 13 9 10 9 7 7 10 9 11
19 27 32 31 28 32 35 31 30 27 24 21 20 19 19 18 17 16 14 14 11 9 9 17 7 8 9 8 8 8 10 9 10
22 19 15 10 16 27 31 32 30 27 25 22 20 18 18 18 19 17 18 15 15 13 12 11 14 11 9 10 10 10 11 9 9
19 20 19 11 5 17 15 21 31 30 27 23 20 19 18 17 17 18 17 17 16 16 15 11 12 7 11 10 10 11 11 13 9
17 20 20 19 15 18 19 12 16 17 28 26 23 21 19 18 17 17 18 18 18 16 17 16 15 16 14 14 13 13 13 13 11
17 19 21 23 22 16 12 11 10 9 11 13 23 23 21 19 18 18 19 20 18 19 17 17 16 16 16 16 16 15 17 16 14
17 19 23 22 24 20 15 11 10 11 9 7 8 10 19 20 18 18 18 19 20 19 20 18 18 19 19 17 16 16 16 17 17
18 19 20 21 21 22 17 14 8 5 2 4 7 12 9 12 15 17 20 19 20 21 21 21 20 19 21 21 19 18 19 19 18
16 16 15 16 16 17 19 19 17 10 4 8 6 8 11 3 9 16 15 17 20 22 23 24 24 23 23 24 23 23 23 23 22
11 11 11 12 12 13 13 13 14 13 10 8 2 4 8 11 16 16 17 17 20 20 24 24 26 27 26 27 29 26 29 30 28
8 8 9 9 9 11 13 12 13 12 11 10 9 5 3 5 9 12 16 21 20 23 22 23 26 29 30 31 31 32 30 33 36
6 7 7 7 9 10 10 9 12 15 11 13 12 11 9 10 4 7 11 17 18 20 23 26 28 27 29 32 34 34 34 34 35
5 6 7 8 9 9 8 9 10 11 11 13 11 15 12 10 10 16 15 15 14 13 21 22 23 24 28 31 34 35 36 38 37
5 6 8 10 9 9 9 10 11 12 12 11 13 14 15 15 14 13 12 17 19 20 16 21 25 25 29 32 33 33 36 37 37
6 6 7 8 10 11 12 13 13 13 14 15 16 18 19 18 18 18 18 19 19 20 19 21 21 26 26 31 31 35 34 37 37
6 7 8 9 9 11 12 13 14 16 16 17 19 20 22 23 22 22 23 23 23 20 19 21 22 22 23 30 31 32 29 33 37
5 7 9 11 12 13 13 13 15 17 19 20 21 23 25 25 25 25 24 25 25 23 19 19 18 21 15 24 27 31 29 30 35
5 8 11 13 14 14 16 17 18 17 19 20 22 24 25 26 25 26 26 25 25 23 25 20 19 20 21 21 22 20 29 31 27
6 9 11 14 15 16 17 18 19 19 19 20 23 25 25 24 24 25 25 25 26 27 29 33 32 32 29 31 34 33 28 33 31
7 9 11 12 13 15 18 19 19 20 22 21 22 24 26 27 26 26 26 28 27 28 27 30 31 35 36 33 37 34 33 29 33

GFSFLT1_850_spd_078.txt.gz
Wind_Speed
25 35 32 29 30 33 31 33 32 30 25 25 24 20 21 21 20 15 7 9 9 13 10 14 9 9 6 10 11 12 14 10 13
22 18 11 19 37 33 36 33 34 34 26 25 23 22 20 18 16 15 14 14 12 12 2 14 14 11 9 10 8 6 9 13 11
20 22 17 11 10 20 31 34 37 34 31 25 24 23 21 21 19 15 18 15 11 9 7 10 12 12 8 8 8 9 10 10 9
19 17 18 16 2 6 13 26 36 17 33 26 24 23 23 21 18 18 19 21 20 18 15 17 4 13 10 11 11 9 12 15 14
22 22 20 16 22 12 14 21 16 17 16 17 21 21 25 22 21 16 16 18 20 16 18 21 13 11 9 12 10 12 11 10 9
22 23 22 19 17 13 15 18 12 14 16 15 7 19 26 25 23 22 21 18 15 17 16 14 17 20 19 18 18 16 15 14 14
20 22 20 23 21 18 17 12 12 16 19 23 5 7 11 28 28 24 22 20 19 16 18 18 16 16 18 15 17 17 18 16 16
18 22 20 19 19 19 16 11 8 5 9 13 15 9 16 20 10 23 18 19 20 19 19 19 20 18 21 21 18 16 15 15 14
17 20 18 17 17 17 19 17 13 9 1 8 8 3 3 8 17 21 9 15 22 23 23 23 22 22 21 23 25 19 20 18 18
15 16 15 15 15 15 15 15 14 16 12 8 11 8 5 8 11 12 19 16 17 21 24 23 24 24 25 25 25 24 23 24 24
11 12 12 11 11 12 11 11 14 12 11 11 8 4 5 3 2 10 22 20 19 20 22 22 26 26 26 28 29 28 27 27 30
9 8 9 8 8 8 8 9 11 13 10 10 10 10 7 6 7 7 9 12 19 21 20 22 24 25 28 32 31 31 31 29 31
8 6 6 6 6 6 5 7 7 7 7 7 9 10 9 8 8 8 10 13 13 12 16 19 21 25 27 31 33 34 34 34 35
6 6 5 6 6 5 5 6 7 8 7 8 11 13 14 13 13 12 11 12 14 20 20 19 22 26 27 28 29 30 32 35 34
4 4 4 5 5 6 7 7 7 7 8 11 14 16 17 18 18 17 16 16 15 16 17 19 24 26 27 27 30 31 34 36 36
4 3 3 4 5 6 7 8 9 9 11 13 16 18 20 22 23 23 21 20 20 20 19 19 19 22 26 29 28 27 31 31 34
4 3 3 4 6 7 7 10 12 13 14 14 16 18 19 20 23 25 24 23 22 20 23 22 20 19 24 24 27 26 25 21 25
2 2 3 4 6 7 9 10 11 13 14 18 18 19 20 21 19 19 21 20 22 23 23 26 28 27 26 24 21 21 21 19 21
1 2 3 5 7 8 8 10 12 13 14 18 19 20 20 20 23 22 24 25 30 28 28 28 26 30 32 36 38 37 33 28 27
5 3 3 7 9 10 10 11 13 15 17 18 19 20 21 22 24 24 25 28 28 32 32 25 31 25 27 31 32 33 30 24 23

GFSFLT1_850_spd_081.txt.gz
Wind_Speed
31 31 25 32 34 37 35 33 35 29 26 27 27 30 28 24 21 18 12 17 15 13 10 12 12 11 10 10 13 15 15 12 15
13 5 12 24 32 28 33 33 35 30 24 24 25 26 29 25 20 18 12 11 11 12 10 19 17 11 11 11 12 9 12 13 15
14 16 17 19 23 25 26 29 29 33 26 23 23 22 23 22 23 20 17 14 14 12 16 10 17 14 12 14 10 7 8 10 11
11 13 14 21 20 29 22 15 21 25 28 24 22 22 21 22 20 20 21 21 17 15 13 12 8 16 12 14 15 14 10 11 13
10 12 11 12 19 28 26 20 13 17 17 22 25 27 25 24 21 21 19 22 19 20 20 14 12 8 15 11 14 12 12 10 15
13 14 18 16 16 19 18 23 25 21 20 11 14 19 20 23 20 19 19 20 25 22 20 20 19 17 12 13 15 14 13 15 13
14 20 21 20 17 14 17 17 17 13 15 23 18 7 11 19 24 22 20 20 18 18 19 19 17 16 18 18 15 16 20 17 15
15 15 20 21 20 17 16 14 12 10 14 15 19 21 18 18 17 18 18 20 18 20 20 19 19 18 19 19 20 19 21 19 16
19 19 19 19 18 19 17 15 13 8 6 7 14 18 6 10 9 19 24 15 15 19 21 22 20 20 19 22 22 20 19 15 14
20 20 18 17 16 17 16 16 15 15 14 9 4 6 16 17 10 19 18 27 30 23 23 23 24 23 23 23 23 24 20 19 23
19 18 18 17 14 12 15 16 16 15 14 14 14 11 9 5 15 19 14 20 21 22 22 24 23 23 25 26 25 25 26 26 28
16 15 13 13 12 9 10 13 9 12 12 8 5 7 7 5 3 4 5 10 18 22 20 21 22 23 25 28 28 27 28 28 29
14 11 11 10 8 7 5 5 4 5 7 2 1 3 2 2 1 2 3 6 10 13 15 18 21 23 26 26 28 28 28 28 31
12 7 7 5 5 2 1 2 1 2 3 5 6 8 8 9 9 8 8 8 9 10 13 15 18 20 20 23 22 25 27 28 29
12 10 9 6 7 6 5 5 3 1 4 8 11 13 15 14 14 14 14 14 14 14 13 14 15 16 18 20 22 24 27 27 28
10 8 8 6 4 6 5 7 8 7 8 11 12 12 12 13 15 15 15 15 16 16 16 16 16 17 17 16 17 18 18 21 22
13 9 5 1 1 3 3 4 6 8 8 13 13 14 14 14 14 13 14 15 15 14 13 15 16 18 20 21 16 10 17 23 22
10 6 2 2 2 2 2 7 7 9 11 14 15 15 15 15 16 18 18 18 18 20 21 18 21 21 23 26 28 26 26 26 24
9 7 6 3 4 4 4 7 8 11 13 14 16 16 17 18 19 19 20 22 25 23 23 25 29 29 29 31 29 30 30 29 31
9 7 11 4 1 5 9 11 7 10 13 17 19 19 18 18 19 21 23 25 27 32 29 29 27 30 35 36 36 28 22 25 25

GFSFLT1_850_spd_084.txt.gz
Wind_Speed
10 26 30 30 32 35 38 37 33 27 24 22 19 24 28 23 20 19 16 15 16 14 12 12 15 16 11 11 12 16 16 18 15
9 11 14 24 30 32 36 35 32 30 25 21 19 24 30 27 23 20 16 15 18 15 13 13 13 14 11 10 13 13 15 16 18
8 9 13 19 23 28 30 32 34 32 26 20 20 23 26 30 25 20 20 16 15 13 13 10 12 17 15 14 13 12 11 13 15
8 8 9 17 22 21 25 22 33 31 27 26 22 21 22 26 27 24 19 20 18 17 15 14 12 15 12 14 16 15 12 10 13
7 7 7 10 17 22 28 13 27 29 32 25 23 22 21 20 20 21 21 22 21 18 16 15 13 10 15 14 17 16 15 12 13
6 7 8 8 8 18 22 18 20 24 23 25 21 20 23 24 23 23 22 22 24 23 20 20 19 17 14 15 16 17 15 12 11
10 9 10 10 10 10 12 14 17 18 17 11 17 22 13 18 23 25 23 23 23 23 23 20 20 20 19 18 16 18 17 16 14
15 14 14 12 12 10 10 11 14 18 17 9 7 21 19 22 11 18 26 26 25 23 23 24 24 22 18 18 19 18 19 20 19
16 18 21 20 19 18 15 12 9 6 8 11 13 16 19 18 21 16 23 24 26 22 22 23 21 23 22 21 21 20 20 20 21
21 19 18 17 19 19 18 17 15 13 9 8 8 15 16 12 16 16 13 23 21 25 21 19 20 24 23 23 24 22 22 21 21
25 22 20 17 17 19 19 15 16 16 15 13 11 10 10 13 15 8 11 20 20 23 24 19 22 25 27 26 25 24 24 23 24
27 23 21 18 16 15 16 15 13 13 11 8 8 8 7 7 7 13 16 18 19 22 24 26 22 25 26 29 28 26 24 27 29
24 20 17 17 15 12 9 10 10 10 8 5 4 4 3 3 4 5 9 12 10 12 15 18 21 24 26 27 29 26 27 28 28
20 16 14 11 9 8 7 5 7 9 8 8 6 6 7 7 7 8 9 9 11 11 10 11 13 20 18 19 19 19 19 19 25
18 15 12 9 8 5 3 3 5 7 8 7 7 9 10 10 10 11 12 12 12 12 11 10 8 8 8 8 7 10 13 13 19
17 15 12 8 4 3 2 4 4 4 5 7 7 6 7 7 6 8 10 11 11 11 12 13 13 13 12 10 11 8 6 8 12
18 15 13 9 6 8 7 7 7 7 7 8 9 8 7 8 8 7 7 8 10 11 12 14 15 16 18 19 17 16 16 17 16
21 18 13 8 7 7 7 7 7 7 8 8 8 9 8 8 9 9 10 10 11 11 11 14 17 19 22 25 26 23 23 23 25
20 16 10 8 5 3 5 7 8 8 8 8 9 10 10 10 10 11 12 13 13 13 15 16 16 18 22 25 30 34 32 30 30
17 13 11 11 6 6 7 8 7 5 5 10 11 11 11 11 12 13 15 17 20 22 17 20 20 21 23 23 26 28 34 36 37

GFSFLT1_850_spd_087.txt.gz
Wind_Speed
18 19 33 40 42 45 41 34 37 30 25 24 24 23 22 24 21 18 15 12 10 9 9 12 14 14 13 10 11 15 12 14 15
11 13 17 32 33 37 38 36 37 33 27 24 23 21 23 25 23 20 16 13 13 15 13 12 15 14 12 10 11 15 18 15 17
8 8 11 18 27 31 33 37 37 34 31 28 23 20 22 25 25 22 16 15 14 16 15 15 13 15 13 13 11 14 15 17 15
5 6 10 16 22 24 27 32 37 29 31 28 27 22 20 22 26 24 20 18 16 16 13 14 12 11 15 15 15 14 15 12 13
7 5 7 12 16 22 23 24 26 28 30 28 20 20 19 21 22 26 25 20 18 19 17 16 14 13 11 13 11 15 17 14 11
11 8 6 10 13 14 18 22 20 22 31 35 29 20 19 22 20 19 18 19 18 19 20 17 15 13 12 11 13 14 16 15 13
10 11 8 8 11 13 13 13 15 19 21 21 22 24 18 21 19 19 20 21 21 19 21 21 19 18 17 16 15 16 17 18 15
11 14 11 11 13 13 17 16 14 10 14 14 15 12 19 23 12 8 9 20 23 22 23 23 24 20 18 17 16 18 19 19 18
15 15 14 14 13 14 15 14 16 16 14 14 16 11 7 15 23 23 16 11 12 21 23 19 23 21 22 19 19 17 17 18 20
18 19 18 17 18 17 15 14 13 12 12 10 9 8 8 10 14 16 19 20 15 17 20 17 16 18 20 22 21 19 21 20 21
20 20 19 19 18 18 18 18 18 17 15 13 13 15 14 12 11 14 20 20 19 21 22 21 23 21 17 22 21 22 22 23 24
22 23 20 19 16 16 16 16 15 15 14 12 10 8 7 7 9 13 14 11 17 15 20 18 19 24 25 21 21 24 25 24 25
21 19 18 18 15 13 11 12 10 7 8 6 5 5 4 4 4 6 10 14 11 12 12 18 17 22 23 24 22 20 24 25 26
20 18 18 16 13 10 8 7 7 6 4 3 3 3 5 6 6 7 8 9 10 10 13 13 14 15 13 13 14 14 19 14 19
25 21 18 14 12 9 7 6 7 7 7 8 8 9 10 10 10 11 11 11 11 12 12 13 14 15 13 12 10 7 10 11 12
25 20 18 14 10 9 7 5 5 6 7 7 7 8 8 7 8 9 9 10 11 12 13 13 14 16 17 16 14 16 15 15 16
24 19 16 12 8 6 6 8 8 7 7 6 6 7 8 8 7 7 8 8 8 8 10 12 13 15 18 19 18 18 20 21 21
22 19 15 11 6 6 6 5 5 5 6 6 5 5 5 6 6 6 6 7 7 7 9 11 12 13 16 19 20 21 24 27 28
21 19 15 10 7 5 3 3 4 5 4 4 4 4 4 5 5 5 6 7 6 7 9 10 11 13 16 16 19 23 25 27 30
23 20 16 11 7 7 4 4 5 3 3 3 3 3 3 3 3 4 5 6 7 7 6 9 10 13 14 17 19 20 22 25 28

GFSFLT1_850_spd_093.txt.gz
Wind_Speed
25 26 25 27 28 32 30 24 26 28 24 27 25 22 19 16 15 14 8 7 5 4 8 5 7 10 9 12 10 7 9 9 9
24 25 27 25 25 28 35 28 23 33 29 25 26 25 22 19 15 14 13 9 8 5 6 7 6 9 8 10 11 10 9 11 11
12 14 19 27 27 24 34 33 26 20 25 29 27 27 25 19 16 14 14 12 10 8 8 11 9 9 10 9 9 10 10 10 13
10 14 18 23 28 30 31 35 33 20 17 25 26 24 24 23 18 16 15 15 12 9 8 9 11 12 11 13 12 12 12 10 12
8 11 13 18 22 28 30 31 36 29 25 24 21 22 26 24 22 19 17 18 16 13 11 9 7 8 11 11 12 13 13 12 11
11 10 11 11 12 19 24 28 33 33 26 28 21 18 22 25 19 20 19 17 18 17 14 14 12 10 10 10 8 10 11 9 11
8 8 9 11 11 12 13 17 28 31 31 28 25 22 18 23 27 21 19 16 14 16 16 15 13 14 13 10 10 9 9 10 11
7 7 8 10 11 12 12 16 19 25 24 24 21 15 14 14 20 17 13 12 12 12 12 13 12 12 14 14 12 13 13 12 12
9 8 8 9 12 12 13 16 17 15 20 20 16 13 13 14 18 19 12 9 8 10 12 13 11 9 11 14 16 16 15 14 14
11 11 12 11 13 14 13 16 19 20 21 21 19 18 16 16 16 17 19 18 9 7 5 6 7 8 7 8 13 16 16 16 16
12 11 12 12 13 14 14 14 13 14 16 17 17 16 13 11 9 10 12 13 15 18 14 10 8 7 9 9 10 10 11 15 16
13 13 13 13 13 14 15 15 15 15 16 16 16 13 11 9 8 7 9 10 11 11 11 9 9 13 13 13 14 12 13 10 11
14 15 16 16 16 16 14 15 13 11 12 11 11 11 9 7 5 5 6 7 6 5 5 6 7 6 9 12 14 17 19 17 15
17 18 19 18 17 16 15 14 11 8 9 7 7 6 5 4 3 3 4 5 5 6 7 6 6 6 7 8 9 13 17 19 22
21 21 20 19 18 16 13 11 7 5 4 3 3 3 3 4 5 5 5 5 6 6 6 7 8 9 9 10 11 11 12 12 14
22 20 20 17 13 11 9 7 5 4 3 3 4 4 5 6 6 6 7 7 7 8 9 9 10 11 11 12 13 15 14 16 16
22 20 18 15 12 9 7 6 4 5 6 6 6 6 7 8 8 8 7 7 7 7 7 8 9 10 10 11 12 14 15 16 16
22 20 18 14 10 8 6 6 6 6 6 6 6 6 7 7 7 7 7 7 7 7 7 7 7 7 8 9 10 10 12 12 13
23 21 19 16 12 10 8 8 8 7 7 6 6 6 6 7 7 7 7 6 5 5 6 7 7 7 7 9 10 12 14 15 16
26 25 21 17 13 13 12 10 9 8 8 7 6 7 6 6 6 5 5 5 4 2 1 2 4 6 6 7 8 10 12 13 14

GFSFLT1_850_spd_096.txt.gz
Wind_Speed
28 27 26 26 24 28 26 22 21 23 17 15 16 16 14 13 12 9 9 6 7 6 8 6 9 11 10 12 11 8 8 6 7
30 30 27 25 24 22 23 30 25 16 19 16 15 15 16 16 12 11 9 10 8 7 5 7 7 10 9 11 14 11 9 8 10
25 25 25 23 23 21 21 27 26 19 19 24 18 14 15 15 12 12 10 10 10 9 7 9 9 9 9 9 10 12 11 9 11
7 16 19 19 20 20 18 26 32 28 23 18 17 20 18 17 16 11 10 11 10 10 9 10 11 10 11 11 11 10 11 11 10
9 10 13 16 16 17 24 24 31 32 31 20 27 19 18 17 18 19 12 12 12 12 12 10 8 10 11 11 10 11 13 11 10
10 9 10 13 13 15 16 19 25 29 27 24 20 19 15 18 20 20 18 13 12 13 13 12 10 10 8 8 10 9 11 10 10
8 7 8 10 12 15 16 16 19 25 30 29 24 22 16 18 19 23 24 15 13 12 14 15 12 11 12 11 9 9 9 10 10
9 8 8 9 11 13 14 16 18 21 26 29 23 15 18 18 17 19 24 17 14 12 12 10 11 12 11 12 12 11 13 13 12
9 8 7 8 11 13 13 15 17 19 20 20 18 17 18 19 15 15 16 19 15 13 13 11 10 9 11 11 12 17 14 14 13
10 10 8 8 11 11 11 13 13 13 16 17 17 17 16 14 15 15 16 15 14 9 7 9 11 9 6 15 18 16 17 17 15
11 10 10 8 11 12 11 13 16 16 15 19 20 17 17 16 15 15 17 15 16 14 13 10 9 9 11 11 11 9 9 12 13
11 11 10 9 9 11 13 14 14 13 15 17 20 21 17 12 11 11 12 13 14 16 17 17 14 11 15 13 14 12 9 9 6
13 13 13 12 11 12 13 13 13 14 16 16 17 16 15 13 11 11 10 10 11 11 11 12 9 12 12 11 14 14 15 14 12
13 14 14 14 14 16 16 15 12 10 10 9 8 8 8 8 8 7 8 9 11 11 11 10 12 12 12 13 13 12 11 13 14
14 15 15 16 17 16 15 14 11 10 8 8 6 6 5 5 6 7 7 8 8 9 10 11 11 12 11 12 12 12 12 12 12
15 15 15 13 12 12 11 8 6 5 5 5 5 5 5 6 7 7 7 7 8 8 9 9 10 7 6 8 10 13 13 13 13
17 16 15 14 13 10 9 8 7 5 3 4 4 5 5 5 6 7 6 4 5 4 4 5 6 6 6 9 12 14 13 12 13
17 17 15 14 13 11 9 7 5 4 4 4 4 4 5 4 4 5 6 8 7 6 11 10 6 7 6 6 8 12 13 12 11
17 18 17 15 13 13 11 9 7 6 5 5 5 5 5 5 5 4 6 5 7 10 10 10 11 11 10 11 11 11 10 10 10
17 16 18 18 17 14 12 10 8 7 7 7 8 7 8 7 7 6 6 7 6 4 6 6 6 6 5 6 7 7 6 7 8

GFSFLT1_850_spd_102.txt.gz
Wind_Speed
26 29 24 25 26 22 32 35 27 30 19 20 19 15 13 8 9 3 3 3 5 5 9 9 6 10 11 11 8 9 5 3 2
39 34 33 25 32 29 30 27 28 19 27 21 18 15 15 16 14 13 11 8 7 2 6 9 5 5 9 9 4 6 6 2 5
42 46 36 34 33 34 34 26 22 32 25 22 18 17 13 14 12 11 12 9 7 7 8 8 15 10 10 10 10 12 13 10 6
41 41 44 39 32 30 30 31 34 31 29 22 21 20 15 13 7 7 7 7 6 4 6 0 8 9 9 9 10 15 15 13 14
14 28 40 42 29 43 34 30 30 27 24 25 19 21 21 15 14 13 12 8 7 5 7 8 6 9 13 15 15 12 15 12 10
13 17 26 38 31 31 29 35 28 28 27 28 22 25 19 21 11 17 13 8 12 6 10 13 10 10 10 13 16 16 15 13 12
13 14 22 21 21 20 21 21 19 25 28 27 26 25 21 20 22 16 9 15 15 17 16 15 11 12 11 10 8 9 11 11 9
14 11 11 14 13 21 17 16 15 20 21 25 30 23 17 15 15 17 16 16 21 18 18 16 16 13 13 14 15 14 11 11 9
11 13 12 11 12 16 19 20 14 13 17 16 16 18 17 15 17 19 16 13 17 18 19 18 18 15 17 19 19 14 13 12 14
15 15 11 9 9 13 18 18 17 17 17 15 14 15 16 13 9 10 11 10 8 12 12 13 14 14 15 14 14 12 13 13 15
17 18 14 11 12 13 14 14 17 16 18 17 18 18 18 15 13 13 10 10 8 8 8 11 11 14 16 12 12 12 12 11 10
19 16 15 13 11 12 13 12 14 17 17 16 18 15 15 14 14 11 9 9 9 9 9 8 8 9 12 9 7 7 8 7 4
19 17 14 9 11 12 11 11 11 12 13 11 14 18 18 18 13 14 12 11 12 12 10 6 8 13 15 17 14 11 10 11 11
20 17 12 9 13 13 12 12 12 12 11 12 12 11 11 12 14 13 11 11 10 10 9 10 10 15 16 18 15 11 9 10 9
17 14 12 10 13 12 12 11 10 11 11 10 8 8 7 8 9 10 10 9 8 8 10 11 11 11 8 9 9 11 11 10 9
13 12 12 12 12 13 13 12 11 12 13 11 12 10 9 7 5 5 5 5 5 4 6 9 7 5 5 7 14 14 9 7 9
11 12 12 12 13 12 14 12 10 10 10 9 8 7 6 6 5 5 5 8 8 6 4 4 4 7 9 8 9 18 11 11 10
11 10 12 12 11 11 10 11 11 10 8 6 5 5 4 5 5 7 9 9 10 14 14 12 12 12 12 11 13 14 10 10 10
10 12 11 10 10 10 10 9 7 8 8 6 4 3 4 5 4 0 4 7 10 16 14 12 20 18 18 16 15 16 16 13 9
10 11 11 11 11 11 12 11 11 10 7 6 8 10 8 7 8 8 8 9 9 8 6 6 13 17 19 18 15 13 10 7 4

GFSFLT1_850_spd_105.txt.gz
Wind_Speed
23 26 18 17 36 24 34 31 33 29 24 18 21 17 16 15 11 7 6 6 4 5 7 6 12 13 11 9 6 5 2 9 6
26 32 21 21 21 33 22 30 35 28 24 16 20 19 18 14 13 12 9 7 7 4 5 6 10 10 11 15 10 7 7 5 6
35 39 28 25 19 25 20 31 30 25 21 18 20 20 20 18 15 15 12 10 7 5 1 2 6 8 5 11 9 8 10 11 9
33 36 47 31 28 20 31 28 31 28 20 23 21 21 20 16 15 15 14 12 9 6 6 1 4 11 11 11 8 12 15 15 15
42 47 41 33 28 26 27 29 27 30 25 29 26 26 24 19 14 17 14 12 10 7 7 7 6 8 10 10 11 13 13 12 11
39 38 31 36 35 29 30 42 35 33 33 33 28 25 17 16 14 17 16 13 13 12 9 5 6 7 5 8 13 15 14 15 13
15 41 38 41 41 37 33 45 35 41 35 33 34 27 21 15 11 14 16 14 12 12 15 12 10 9 9 7 10 11 14 13 10
23 24 23 33 38 38 31 32 33 35 32 36 34 23 19 15 13 17 16 14 11 12 14 14 14 11 12 14 10 10 13 9 8
12 15 20 24 30 32 28 25 20 22 29 30 25 21 19 18 11 10 12 11 12 12 12 19 17 15 14 14 13 11 10 8 11
13 19 17 17 18 29 29 26 25 25 21 16 11 13 17 13 11 10 11 12 9 5 6 8 14 14 13 12 11 12 10 9 10
18 13 14 13 14 16 22 20 21 18 20 17 14 13 15 14 13 13 9 7 5 4 4 7 9 12 15 14 14 12 11 10 11
14 12 11 10 12 13 13 15 16 15 17 17 21 20 16 16 13 10 8 8 6 5 7 8 8 11 11 8 7 7 7 8 7
18 13 8 4 8 12 11 12 11 13 14 15 16 17 16 13 14 11 9 7 6 6 8 11 10 10 7 7 8 8 9 9 11
14 11 5 7 11 11 11 9 10 10 10 10 10 12 15 16 16 13 11 10 9 7 8 10 9 8 10 13 14 11 10 10 9
13 8 7 11 10 10 10 10 10 9 9 9 10 10 9 9 8 9 10 9 9 8 9 10 9 7 7 8 7 5 5 7 8
12 11 13 13 13 13 11 9 7 7 9 9 9 9 8 8 8 8 9 10 10 9 10 10 9 8 5 10 9 11 9 9 7
13 11 11 6 10 12 12 11 11 9 10 11 9 8 8 8 8 8 9 9 9 9 8 9 9 8 7 7 12 12 12 7 6
11 10 6 3 5 7 9 9 10 11 10 9 9 8 7 7 7 7 7 7 8 8 7 7 8 9 12 13 14 14 11 10 12
11 9 10 9 4 2 5 8 9 9 8 6 5 5 4 4 5 2 4 6 7 8 10 10 13 14 13 14 14 16 17 16 13
9 4 8 8 7 8 5 6 9 9 8 8 7 6 4 4 4 5 4 5 7 7 5 5 7 12 18 20 20 21 19 13 8

GFSFLT1_850_spd_108.txt.gz
Wind_Speed
31 23 24 28 23 35 35 32 28 25 22 23 22 23 20 16 15 13 11 10 12 12 14 12 18 18 17 11 9 10 9 7 5
28 28 20 25 21 24 35 35 31 26 21 22 23 22 20 20 15 15 15 12 10 6 9 10 12 15 15 12 11 11 9 6 8
29 35 25 24 29 29 30 35 34 29 24 22 22 23 21 21 19 18 16 13 10 7 6 7 10 12 9 9 13 11 10 9 8
33 38 34 25 28 30 30 34 32 29 27 27 25 25 22 21 19 18 17 13 11 9 9 8 11 13 12 9 13 11 11 13 15
27 37 38 27 28 26 35 32 37 25 30 30 28 23 22 21 19 19 18 17 13 11 10 10 7 6 10 12 14 13 12 13 15
22 25 30 33 29 28 29 29 18 31 30 28 25 21 22 22 17 20 19 16 14 12 11 10 10 9 8 10 15 15 14 13 11
16 21 28 31 31 30 29 28 27 37 36 24 28 24 26 24 21 20 20 18 18 16 14 11 10 11 11 10 10 13 14 13 11
19 26 23 31 28 31 34 33 29 35 36 32 28 30 27 22 20 16 18 21 19 15 16 18 18 16 15 13 11 9 10 8 7
21 21 33 34 35 33 29 30 24 28 32 27 30 31 31 24 19 14 16 19 17 15 15 17 18 19 17 13 12 10 8 8 7
26 25 24 25 29 31 31 31 22 30 34 29 37 34 22 22 17 16 16 17 15 13 13 14 17 20 19 16 14 11 7 5 9
19 21 20 20 19 25 30 33 20 35 43 29 25 20 23 22 19 17 14 11 11 11 10 9 9 11 12 12 12 10 15 14 11
13 10 8 9 13 18 23 20 29 28 29 23 19 18 18 18 17 16 13 12 11 9 9 8 8 9 11 11 9 8 8 8 8
16 12 7 4 8 11 11 13 16 19 24 21 18 17 16 19 14 16 12 10 9 9 9 8 8 8 8 8 7 6 7 8 10
11 8 4 4 8 8 8 12 13 14 13 15 15 17 17 19 13 14 14 11 11 10 10 11 11 11 10 9 9 11 11 12 12
7 5 8 8 9 10 9 8 8 9 10 11 13 13 13 15 16 16 14 12 10 11 11 11 11 10 9 7 6 5 4 7 10
9 9 9 8 7 8 10 11 9 9 9 9 10 11 12 11 11 11 12 13 13 12 12 11 10 9 10 9 7 6 6 5 6
8 9 10 5 5 7 7 8 8 7 7 7 8 8 8 8 8 8 9 10 10 10 12 13 13 12 12 11 9 7 6 5 3
6 7 7 8 4 4 5 6 6 7 7 7 7 7 6 5 5 5 6 6 6 7 7 8 8 9 10 10 10 10 8 6 8
11 8 5 6 5 3 1 3 6 6 5 4 3 3 3 3 3 5 6 7 7 7 8 9 9 10 11 12 12 12 12 13 13
5 5 2 1 3 4 4 2 2 4 5 5 4 4 4 3 4 4 4 4 3 4 5 5 6 8 10 13 18 21 19 16 14

GFSFLT1_850_spd_111.txt.gz
Wind_Speed
23 23 37 45 44 42 36 32 30 27 27 25 23 21 22 21 18 16 16 13 14 14 13 18 19 18 16 13 10 12 14 11 9
29 27 28 42 43 42 38 35 31 28 25 26 24 22 22 21 18 16 16 14 12 14 13 14 14 19 18 16 13 13 13 11 9
36 39 29 31 40 41 39 34 32 29 26 24 22 21 22 21 19 15 16 15 12 9 10 12 15 15 17 17 15 14 14 12 9
35 39 42 34 31 35 39 36 35 32 30 26 23 19 21 19 19 18 17 15 12 10 10 9 10 12 15 13 13 16 15 12 10
29 36 42 42 30 34 34 33 36 34 33 31 27 20 18 19 18 18 19 18 15 13 12 11 8 13 16 13 12 16 15 15 14
31 32 39 32 26 31 32 34 32 31 32 29 25 22 19 20 20 19 19 19 19 16 14 12 11 10 10 12 14 17 18 16 13
28 34 39 37 31 26 31 34 30 28 28 26 28 23 22 23 22 23 21 19 20 17 16 12 11 10 10 12 12 15 18 16 15
28 33 41 40 31 25 27 28 26 28 22 20 25 24 23 23 23 26 21 20 22 21 22 18 15 14 16 16 15 13 11 11 12
30 33 36 39 28 31 36 32 28 29 24 21 28 22 19 26 21 22 19 21 24 22 18 13 13 17 17 16 14 12 13 12 13
13 17 23 27 32 34 28 28 26 21 19 21 26 27 21 23 25 23 20 20 20 20 18 19 18 19 18 18 16 15 12 10 10
11 12 12 16 19 20 20 20 15 22 21 23 20 19 19 26 26 24 21 20 18 18 17 15 13 12 12 14 14 16 17 19 17
11 8 7 8 8 15 21 29 22 20 19 17 14 17 19 22 26 23 21 17 14 14 12 11 10 10 10 9 9 10 11 12 10
10 8 7 4 3 6 8 7 21 27 25 28 28 23 27 24 21 19 14 14 14 10 8 7 9 9 8 8 8 8 7 8 10
7 6 7 8 7 6 6 5 7 8 15 19 27 30 24 20 21 18 16 13 11 11 11 10 11 10 9 9 8 9 10 11 12
6 7 10 10 9 7 7 6 6 8 13 14 15 18 21 23 20 12 11 13 12 11 10 10 12 11 9 7 6 5 6 7 10
10 8 10 12 9 8 7 8 8 7 6 5 6 6 8 10 11 14 15 15 13 10 10 11 10 10 9 8 8 7 6 6 7
13 13 10 9 11 7 7 6 6 6 5 6 7 6 5 6 6 6 6 6 8 9 10 12 11 11 10 9 8 6 6 6 5
14 16 16 14 11 7 6 6 6 7 6 6 6 5 5 4 3 3 3 3 4 5 7 9 10 10 10 9 7 7 8 7 7
12 13 13 13 15 12 8 6 5 5 5 5 4 4 4 5 4 4 4 4 5 4 5 7 8 9 9 9 9 10 11 13 12
11 11 11 10 9 9 11 9 6 4 4 4 2 2 2 2 2 2 2 2 2 3 4 4 5 7 8 9 11 15 17 19 18

GFSFLT1_850_spd_114.txt.gz
Wind_Speed
28 34 38 40 45 44 41 36 31 33 33 29 26 24 22 21 19 17 17 15 12 12 14 16 17 15 13 12 12 10 13 11 11
29 32 36 41 43 44 42 37 33 30 31 30 27 25 20 19 18 16 14 13 13 11 14 13 16 18 18 16 14 12 13 14 12
25 25 33 39 43 46 43 39 32 29 27 26 26 23 20 19 19 16 14 14 13 10 9 14 15 16 17 18 16 15 14 14 12
41 39 38 39 46 47 46 41 37 32 29 25 25 24 19 18 18 17 15 12 10 9 9 9 12 14 14 17 17 17 18 16 14
35 38 38 38 38 45 43 42 40 35 33 29 24 24 20 17 18 16 17 15 12 11 12 12 12 12 14 16 15 15 17 17 15
28 33 37 42 40 37 35 38 40 39 36 33 29 25 23 19 19 18 17 16 14 14 13 14 15 13 12 16 18 16 14 16 15
24 25 32 39 40 41 41 34 34 38 37 34 32 29 26 22 22 20 19 17 20 16 15 16 17 16 14 14 15 15 17 17 16
24 29 32 38 36 34 34 29 29 32 31 28 26 26 28 26 22 18 18 24 12 21 19 17 19 18 16 14 14 13 13 12 13
20 25 30 33 33 24 22 25 30 32 27 19 16 22 27 26 22 21 17 21 16 18 19 19 20 22 16 15 15 14 13 13 13
13 14 21 28 31 32 28 25 23 21 19 21 22 21 22 19 17 19 15 22 20 22 24 21 18 14 15 17 16 15 15 13 12
11 11 14 16 19 20 20 23 24 22 20 19 22 23 22 22 22 22 20 23 20 19 17 16 15 17 15 15 15 14 13 13 13
17 13 8 7 12 13 16 19 23 19 15 22 21 17 16 22 17 17 18 25 23 22 19 16 14 11 11 10 9 9 9 9 9
15 11 8 7 6 6 12 16 19 20 15 16 13 15 13 12 16 19 22 22 24 19 12 10 11 10 10 9 9 8 7 6 8
12 13 14 11 7 5 3 4 5 21 22 17 17 20 18 17 19 19 22 18 13 9 10 10 10 10 9 8 8 8 8 9 9
15 17 15 14 10 10 9 8 5 8 10 12 13 15 19 18 23 15 16 10 8 9 12 11 10 10 10 9 8 7 6 6 8
15 15 15 16 13 13 12 12 11 10 11 10 10 10 13 13 20 10 9 10 11 12 11 10 10 11 9 8 7 6 6 6 6
15 16 15 15 12 12 11 10 10 10 11 11 11 9 9 9 9 8 9 10 9 9 10 12 11 10 8 6 6 6 7 5 5
20 21 21 16 11 12 12 12 11 9 9 9 8 8 7 7 7 6 4 3 4 5 7 7 8 8 8 6 6 7 8 8 7
20 22 20 19 17 14 14 14 13 11 11 10 9 9 8 6 5 5 5 4 4 4 4 4 6 6 6 6 6 8 10 11 12
15 15 15 15 15 16 15 13 12 11 11 11 10 10 10 9 7 4 4 4 2 1 1 2 3 4 5 6 6 8 10 13 16

GFSFLT1_850_spd_117.txt.gz
Wind_Speed
30 33 33 33 33 33 37 36 32 30 30 28 27 25 25 22 19 16 14 13 13 13 13 15 13 15 12 12 11 11 11 12 12
27 33 33 33 32 39 38 37 33 30 31 29 28 25 24 22 21 19 17 15 14 13 12 14 14 16 16 14 13 13 12 12 15
31 29 34 30 31 34 41 38 34 30 30 29 28 26 25 22 20 19 16 14 14 14 12 11 13 13 15 16 17 16 15 13 14
29 29 36 35 39 41 44 37 36 33 31 30 28 28 25 23 20 18 17 14 14 13 12 10 10 12 13 15 17 18 17 16 15
32 35 33 36 38 39 42 42 37 36 33 30 28 27 25 22 19 19 18 17 15 14 13 11 10 10 11 13 15 17 17 17 17
24 25 36 36 34 36 44 40 37 36 35 31 29 29 26 24 21 21 20 20 18 17 16 14 13 11 12 12 14 15 16 14 15
18 21 24 36 33 38 42 36 32 37 36 33 32 29 28 27 24 21 21 19 18 17 17 17 16 13 12 13 14 14 16 16 16
13 20 25 31 38 34 36 31 26 28 30 33 33 31 31 30 27 23 22 22 21 18 19 18 16 14 13 14 13 13 14 15 15
14 15 17 20 29 38 33 35 30 24 27 24 31 31 32 29 28 26 25 23 22 25 22 22 17 14 16 15 17 17 17 17 15
10 11 12 13 19 23 28 28 26 25 24 21 19 21 21 24 29 31 29 25 20 19 17 18 18 17 18 21 19 14 13 14 15
9 9 11 14 18 24 25 21 18 17 14 21 20 20 26 22 29 33 25 23 19 18 18 15 15 14 14 13 14 17 15 16 15
10 8 8 10 16 18 17 18 18 19 20 18 19 24 23 24 24 24 25 24 21 22 20 16 14 14 16 15 15 14 12 13 15
10 10 10 8 8 16 16 13 18 19 19 18 15 18 19 18 20 21 17 14 14 16 20 18 19 18 12 11 10 9 10 10 10
13 13 11 8 7 7 6 7 13 18 24 19 15 14 15 14 11 12 13 14 15 17 16 21 18 15 13 10 9 8 7 7 9
13 15 13 12 12 10 9 7 7 13 20 16 16 16 19 20 12 4 4 6 10 10 9 11 10 8 9 9 7 7 7 8 8
14 15 15 15 15 17 16 16 13 14 14 10 7 6 8 13 13 8 3 3 8 7 13 14 12 9 12 10 7 6 5 6 6
14 14 15 15 15 17 19 18 17 17 16 13 12 11 11 12 9 17 11 12 11 13 13 14 13 12 8 7 6 6 7 6 6
16 16 15 15 16 18 18 17 18 18 17 14 13 13 13 12 8 6 6 7 7 7 6 6 6 5 4 5 7 7 8 7 7
19 18 17 17 17 19 20 18 19 18 17 14 14 15 15 14 12 11 8 7 6 4 2 1 1 3 3 5 7 7 8 9 11
19 19 19 19 19 18 18 18 17 17 17 16 16 15 15 13 12 10 9 8 6 4 2 2 2 3 4 5 5 6 8 9 11

GFSFLT1_850_spd_123.txt.gz
Wind_Speed
31 29 36 38 32 29 31 26 23 22 22 22 22 20 20 18 15 13 11 11 11 11 10 10 8 8 10 11 11 9 9 9 7
26 34 33 34 33 32 29 26 25 23 22 22 22 23 20 19 17 16 14 12 14 11 12 11 15 11 12 13 12 13 13 11 10
25 28 32 32 32 34 30 26 26 24 23 22 23 22 21 19 18 17 16 13 13 13 13 13 13 11 13 14 15 13 14 12 12
21 21 21 28 32 34 32 28 28 25 24 22 22 23 22 20 19 18 16 16 15 13 15 16 14 13 14 13 16 18 18 16 16
4 16 20 23 29 30 33 30 29 26 25 23 21 22 22 20 18 18 17 16 15 17 13 13 13 13 12 12 13 13 15 15 14
4 12 15 18 12 21 30 29 28 28 26 23 21 22 22 20 19 18 18 16 15 14 12 13 11 12 11 11 11 11 12 15 14
6 11 16 14 19 12 17 23 27 26 25 23 22 21 21 22 21 19 18 17 16 15 15 14 11 13 13 12 11 11 12 13 12
10 12 20 19 23 21 11 9 19 24 22 24 22 21 20 21 20 19 18 18 18 17 16 15 15 15 15 13 11 12 15 17 12
12 15 16 20 26 33 36 29 19 31 25 18 23 23 22 20 20 19 19 19 19 20 19 18 16 16 16 15 14 19 20 20 14
6 14 10 14 22 25 37 27 28 24 28 32 23 20 18 23 16 16 16 18 21 22 21 20 19 19 19 17 19 20 19 17 16
8 7 10 5 3 13 23 29 21 22 28 23 15 14 15 16 16 15 16 19 23 24 24 24 23 20 20 20 22 19 19 18 15
7 9 11 8 4 6 9 15 21 19 23 22 18 13 11 9 10 15 18 18 23 24 24 27 30 25 21 21 20 19 15 13 18
7 11 5 4 5 10 11 12 11 14 18 15 16 16 10 7 6 9 10 16 21 23 28 31 30 30 22 19 14 12 10 7 6
10 14 8 6 7 11 19 16 15 18 12 14 11 13 13 9 7 9 8 13 20 8 7 6 13 17 16 15 16 9 8 8 7
12 17 10 9 5 4 8 15 16 17 20 19 15 15 13 11 11 6 1 2 2 2 2 5 1 8 7 4 5 4 3 5 7
14 17 16 13 15 13 9 7 8 14 12 13 16 13 12 10 8 6 10 9 7 7 7 8 12 11 9 3 2 6 9 8 5
14 14 15 14 16 19 20 18 15 12 9 7 8 9 7 7 10 13 13 7 6 5 4 2 3 6 8 3 2 5 4 2 3
14 15 11 12 14 16 18 19 21 21 20 17 17 15 12 11 9 8 8 7 7 3 3 2 4 7 9 8 6 3 2 5 7
15 13 12 13 15 17 16 17 18 18 17 18 19 18 16 16 14 13 11 9 9 9 7 5 6 5 3 1 0 2 4 7 9
14 14 15 14 15 16 15 15 17 15 13 17 16 16 17 13 10 9 8 8 7 10 10 9 7 5 3 1 1 3 5 6 8

GFSFLT1_850_spd_129.txt.gz
Wind_Speed
30 36 34 30 42 29 42 42 38 33 30 29 25 28 30 30 25 27 20 20 16 16 16 12 11 12 14 12 10 10 11 13 10
29 31 39 31 31 34 39 44 41 36 31 31 27 24 28 30 28 26 21 14 15 16 13 13 11 11 12 13 12 12 14 12 12
16 30 34 37 29 38 38 45 44 40 34 30 29 21 28 30 31 29 22 21 18 20 19 18 14 14 13 15 15 13 12 13 13
17 23 20 13 25 31 40 39 45 45 38 33 33 25 24 31 32 30 26 26 22 21 21 19 21 18 17 15 14 16 17 17 15
9 13 11 23 26 29 25 34 41 42 39 36 34 27 22 30 26 28 28 30 23 22 18 17 16 15 14 12 12 15 14 15 13
12 10 13 11 21 16 33 32 32 33 36 40 34 29 24 28 26 25 25 24 20 22 19 14 12 14 13 11 12 12 11 11 11
12 14 11 8 10 19 23 36 38 41 34 37 38 32 28 30 29 27 25 21 20 18 16 15 13 12 11 8 7 10 11 10 8
11 5 1 8 9 13 21 28 36 40 39 34 33 34 30 34 35 30 27 24 21 23 21 15 13 12 8 9 9 9 9 9 9
14 5 12 10 7 10 17 20 31 39 49 38 21 9 36 31 34 32 30 27 25 25 21 17 15 13 13 13 14 13 10 10 11
5 4 6 5 4 3 5 15 14 22 30 34 40 36 35 32 34 29 28 26 26 25 21 20 20 18 17 19 19 18 15 16 16
4 4 3 4 5 5 23 20 11 10 15 26 41 30 38 34 32 28 27 26 25 22 21 20 18 18 20 21 21 20 18 18 18
4 9 5 3 6 7 6 16 16 9 10 12 24 23 20 31 20 23 23 23 23 22 20 16 17 19 18 17 17 18 18 18 18
7 7 4 5 5 3 2 2 8 11 6 11 11 15 17 23 24 21 18 15 16 15 12 13 12 12 13 15 16 19 21 20 13
4 7 7 5 8 7 3 4 2 8 8 9 14 20 22 24 24 20 16 13 7 7 9 9 10 13 14 13 11 10 8 5 4
2 2 5 6 9 9 6 6 10 2 4 7 11 14 14 13 16 17 15 16 14 17 8 8 8 8 7 6 8 13 15 16 9
8 6 5 2 1 4 5 7 10 8 6 7 6 7 10 10 17 21 19 18 10 11 13 12 17 18 16 14 16 17 16 13 9
14 14 14 12 11 11 13 9 7 16 8 6 8 6 21 14 16 16 13 13 16 17 14 13 16 16 16 14 13 9 8 5 5
12 15 15 17 20 22 22 17 17 15 14 13 15 19 20 19 15 12 15 14 13 10 9 8 10 11 10 8 7 6 4 3 3
13 13 14 16 18 23 26 26 27 22 21 19 22 20 18 17 16 16 14 11 13 14 12 11 10 8 7 6 6 5 3 3 3
18 17 18 20 22 23 23 20 26 26 28 28 29 30 25 24 24 24 24 22 19 18 18 16 15 13 11 9 8 6 5 5 5

GFSFLT1_850_spd_132.txt.gz
Wind_Speed
27 29 31 36 44 32 40 45 41 36 32 29 35 32 34 30 26 26 21 19 20 17 16 14 16 17 14 12 10 11 12 14 12
26 24 25 37 42 33 36 46 44 40 36 29 33 35 34 35 30 31 29 22 22 19 17 18 16 17 15 16 15 13 13 13 11
27 22 20 28 40 39 40 40 45 42 40 33 30 33 33 36 33 32 30 27 24 23 20 17 17 16 17 17 15 12 14 13 13
15 19 23 25 31 39 35 37 42 46 44 38 32 33 30 35 35 35 31 29 26 24 24 22 21 19 17 16 15 16 17 17 15
6 19 21 14 12 28 28 38 41 47 46 41 36 33 34 31 34 34 34 32 31 26 27 25 24 23 23 20 18 16 17 18 18
8 4 3 10 14 15 13 28 35 39 44 47 41 39 35 32 30 35 36 36 31 29 26 24 23 23 23 20 18 18 17 17 15
3 5 5 3 4 8 14 19 24 30 39 42 45 42 38 34 31 33 35 36 33 32 28 26 23 19 18 19 17 15 14 15 14
4 7 7 4 2 5 11 13 22 33 35 36 43 41 36 34 31 32 31 30 31 29 27 28 24 18 16 18 17 16 14 13 13
7 9 9 8 9 9 15 16 18 18 24 35 43 37 42 38 32 36 34 31 30 30 30 27 22 19 20 19 19 16 14 13 14
6 5 7 6 3 4 7 12 19 22 16 22 36 35 42 27 31 31 33 35 33 33 28 28 24 22 21 18 19 18 16 15 13
3 8 9 10 7 3 4 8 5 10 15 14 18 35 42 43 37 38 36 39 36 33 30 27 25 24 23 21 22 20 16 16 14
9 12 11 7 5 3 4 5 9 11 7 13 15 24 29 34 35 37 42 42 38 35 32 29 26 27 27 24 22 20 16 17 17
9 11 9 7 6 4 4 1 6 9 2 10 19 21 34 44 40 27 39 41 39 37 33 30 29 27 24 19 17 13 14 14 17
11 10 8 7 7 4 1 1 4 7 10 14 10 16 24 36 34 28 26 33 31 31 27 22 23 18 15 12 11 11 10 7 9
4 6 8 7 8 7 5 4 4 3 14 21 21 17 24 34 34 25 22 22 18 22 18 17 16 16 17 16 12 14 14 11 9
6 5 1 1 4 6 7 7 10 2 7 10 16 14 24 25 27 27 27 25 22 18 14 14 16 16 19 24 27 21 19 18 12
10 9 9 7 4 5 7 7 8 3 4 5 15 17 17 23 27 24 21 18 19 19 18 18 19 19 20 21 18 17 14 10 7
12 12 13 12 11 9 9 10 9 7 9 10 16 19 19 17 18 12 20 22 22 19 19 17 17 18 19 16 12 11 10 7 4
8 10 14 16 18 18 16 13 14 14 12 14 22 20 20 16 12 17 16 13 15 15 15 14 13 13 10 10 9 8 8 7 6
10 11 14 17 19 20 20 20 21 20 19 18 19 19 20 19 18 18 17 17 15 19 20 18 17 15 14 13 11 10 8 7 6

GFSFLT1_850_spd_135.txt.gz
Wind_Speed
24 27 33 37 34 41 43 44 43 39 35 32 35 35 32 29 28 27 25 21 22 21 21 18 17 18 18 16 14 13 14 14 12
17 27 30 31 38 37 42 44 45 42 39 34 31 36 34 32 31 28 30 25 21 20 19 18 16 18 19 18 16 14 12 13 13
10 20 22 23 31 38 37 37 31 38 45 41 32 32 36 35 34 33 29 30 25 22 21 19 21 20 19 18 19 19 17 16 16
7 14 18 20 22 30 39 38 43 34 45 47 36 36 35 37 35 36 33 32 29 27 22 22 22 21 19 20 20 18 19 19 18
8 5 11 9 14 22 31 30 37 39 44 44 39 39 38 37 35 36 38 36 32 31 28 29 27 23 22 21 20 18 20 19 19
6 7 10 8 9 12 17 29 30 35 41 40 41 43 40 40 38 36 39 39 37 33 32 29 27 25 25 23 23 23 22 21 20
7 7 7 8 8 8 12 14 21 29 33 37 42 37 31 39 44 39 37 39 39 36 34 31 27 25 24 25 24 23 21 21 20
10 8 7 8 8 8 9 12 16 22 31 30 32 34 43 44 42 46 38 37 38 38 36 32 29 27 26 23 24 23 22 20 18
10 11 12 10 8 8 8 9 12 17 25 33 37 41 46 43 41 43 42 37 35 36 38 36 33 32 29 26 23 23 20 18 17
6 7 9 8 5 3 2 4 9 14 18 23 29 34 42 47 42 47 44 38 35 34 35 36 33 31 29 28 26 22 22 19 17
9 10 11 10 7 4 2 3 5 8 11 17 22 27 36 42 44 44 47 38 38 36 34 33 33 32 31 28 26 23 21 21 21
12 13 14 9 8 8 5 5 4 10 11 15 20 27 34 41 51 46 46 36 40 37 37 35 35 32 31 28 28 26 22 24 24
12 12 13 12 9 6 2 3 6 9 9 15 15 25 31 30 40 45 44 41 36 30 35 35 33 31 28 30 29 26 23 23 18
9 8 9 10 8 6 3 5 2 7 13 18 25 25 28 27 27 34 37 37 37 32 33 35 35 33 31 27 25 18 11 10 14
6 7 9 9 9 8 8 6 4 4 12 16 16 15 16 22 25 36 22 16 24 30 35 38 32 31 26 22 17 12 10 8 9
6 7 7 7 7 8 9 8 6 2 7 14 17 25 16 16 26 27 19 17 26 23 25 25 22 26 22 20 21 20 18 14 13
4 4 3 2 3 4 5 7 7 4 6 9 18 26 31 30 32 28 29 29 24 25 20 20 17 18 28 24 20 21 18 12 9
6 7 5 4 4 4 4 7 11 12 9 9 13 15 21 24 24 25 23 25 23 24 23 21 22 24 21 19 19 17 13 10 5
7 8 10 10 9 8 8 9 8 13 16 10 13 15 13 16 19 23 27 21 22 23 23 22 22 21 16 14 12 11 9 7 7
8 9 9 9 11 14 11 11 11 9 14 14 14 11 6 11 18 17 15 18 20 25 23 20 18 16 16 14 13 12 11 10 9